M I D A S
Marine Information and Data Acquisition System
Tripno 2098 of the Zeeleeuw from 2011-05-09 07:32:46 to 2011-05-09 14:36:38
Back to CruiseResearch ActivitiesStationsMapUnderway DataData graphs

EquipmentUnitsComment
TimeDGPSUTC
LatitudeDGPSDM.mWGS84
LongitudeDGPSDM.mWGS84
TemperatureSBE03/SBE38deg celciusITS90
ConductivitySBE21S/mITS90
SalinitySBE21 Practical Salinity Units
ChlorophylAChelsea fluorimeterg/lCalibrated in Aceton
Missing or incorrect values are displayed as -999
Sea surface data collected by the RV Zeeleeuw from 2011-05-09 07:16:12 to 2011-05-09 14:47:01
                                                                                    Next 1000 lines
Time Latitude Longitude Temperature Conductivity Salinity ChlorophylA
2011-05-09 07:16:23 51°13.661 2°55.961 16.9798 0.075713 0.39671 -3.020363
2011-05-09 07:16:28 51°13.662 2°55.961 16.9795 0.075713 0.39671 -3.020363
2011-05-09 07:16:33 51°13.662 2°55.96 16.9801 0.075713 0.396716 -3.020363
2011-05-09 07:16:38 51°13.662 2°55.96 16.9803 0.075713 0.396723 -3.020363
2011-05-09 07:16:42 51°13.661 2°55.96 16.981 0.075713 0.39673 -3.020363
2011-05-09 07:16:48 51°13.661 2°55.96 16.9815 0.075713 0.396736 -3.020363
2011-05-09 07:16:52 51°13.661 2°55.96 16.9822 0.075713 0.396736 -3.020363
2011-05-09 07:16:57 51°13.661 2°55.959 16.9825 0.075713 0.396736 -3.020363
2011-05-09 07:17:02 51°13.661 2°55.959 16.9824 0.075713 0.396736 -3.020363
2011-05-09 07:17:08 51°13.661 2°55.959 16.9831 0.075713 0.396743 -3.020363
2011-05-09 07:17:12 51°13.661 2°55.959 16.9831 0.075713 0.39675 -3.020363
2011-05-09 07:17:18 51°13.661 2°55.959 16.9835 0.075713 0.396756 -3.020363
2011-05-09 07:17:23 51°13.661 2°55.959 16.9832 0.075713 0.396756 -3.020363
2011-05-09 07:17:28 51°13.661 2°55.959 16.9837 0.075713 0.396763 -3.020363
2011-05-09 07:17:32 51°13.661 2°55.96 16.9844 0.075713 0.396763 -3.020363
2011-05-09 07:17:38 51°13.661 2°55.96 16.9847 0.075713 0.396769 -3.020363
2011-05-09 07:17:43 51°13.661 2°55.96 16.9843 0.075713 0.396776 -3.020363
2011-05-09 07:17:48 51°13.661 2°55.96 16.9851 0.075713 0.396776 -3.020363
2011-05-09 07:17:52 51°13.661 2°55.96 16.9855 0.075713 0.396776 -3.020363
2011-05-09 07:17:57 51°13.661 2°55.96 16.9861 0.075713 0.396783 -3.020363
2011-05-09 07:18:03 51°13.661 2°55.961 16.9865 0.075713 0.396783 -3.020363
2011-05-09 07:18:08 51°13.661 2°55.961 16.987 0.075713 0.396789 -3.020363
2011-05-09 07:18:12 51°13.661 2°55.961 16.9877 0.075713 0.396796 -3.020363
2011-05-09 07:18:17 51°13.66 2°55.961 16.9884 0.075713 0.396796 -3.020363
2011-05-09 07:18:22 51°13.66 2°55.961 16.9893 0.075713 0.396796 -3.020363
2011-05-09 07:18:28 51°13.66 2°55.961 16.9908 0.075713 0.396802 -3.020363
2011-05-09 07:18:32 51°13.66 2°55.96 16.9922 0.075713 0.396802 -3.020363
2011-05-09 07:18:37 51°13.66 2°55.96 16.993 0.075713 0.396809 -3.020363
2011-05-09 07:18:42 51°13.66 2°55.96 16.9938 0.075713 0.396816 -3.020363
2011-05-09 07:18:48 51°13.659 2°55.96 16.9938 0.075713 0.396816 -3.020363
2011-05-09 07:18:52 51°13.66 2°55.96 16.9899 0.075713 0.396816 -3.020363
2011-05-09 07:18:57 51°13.66 2°55.96 16.9828 0.075713 0.396816 -3.020363
2011-05-09 07:19:02 51°13.66 2°55.959 16.9794 0.075713 0.396822 -3.020363
2011-05-09 07:19:07 51°13.66 2°55.958 16.9649 0.075713 0.396822 -3.020363
2011-05-09 07:19:12 51°13.661 2°55.955 16.968 0.075713 0.396822 -3.020363
2011-05-09 07:19:17 51°13.662 2°55.952 16.9826 0.075713 0.396822 -3.020363
2011-05-09 07:19:22 51°13.663 2°55.949 16.9899 0.075713 0.396822 -3.020363
2011-05-09 07:19:29 51°13.665 2°55.942 16.9899 0.075713 0.396829 -3.020363
2011-05-09 07:19:34 51°13.666 2°55.937 16.9872 0.075713 0.396836 -3.020363
2011-05-09 07:19:40 51°13.668 2°55.93 16.9867 0.075713 0.396836 -3.020363
2011-05-09 07:19:45 51°13.67 2°55.924 16.9941 0.075713 0.396842 -3.020363
2011-05-09 07:19:51 51°13.671 2°55.916 16.9983 0.075713 0.396849 -3.020363
2011-05-09 07:19:56 51°13.673 2°55.909 16.999 0.075713 0.396849 -3.020363
2011-05-09 07:20:01 51°13.675 2°55.902 17.0012 0.075713 0.396849 -3.020363
2011-05-09 07:20:07 51°13.677 2°55.893 17.0021 0.075713 0.396855 -3.020363
2011-05-09 07:20:11 51°13.678 2°55.886 17.0033 0.075713 0.396862 -3.020363
2011-05-09 07:20:16 51°13.68 2°55.878 17.0048 0.075713 0.396869 -3.020363
2011-05-09 07:20:21 51°13.681 2°55.87 17.0057 0.075713 0.396869 -3.020363
2011-05-09 07:20:27 51°13.683 2°55.86 17.0069 0.075713 0.396869 -3.020363
2011-05-09 07:20:32 51°13.685 2°55.851 17.0081 0.075713 0.396875 -3.020363
2011-05-09 07:20:37 51°13.686 2°55.843 17.0094 0.075713 0.396882 -3.020363
2011-05-09 07:20:41 51°13.687 2°55.836 17.0102 0.075713 0.396882 -3.020363
2011-05-09 07:20:46 51°13.688 2°55.828 17.0105 0.075713 0.396889 -3.020363
2011-05-09 07:20:52 51°13.689 2°55.818 17.0107 0.075713 0.396889 -3.020363
2011-05-09 07:20:57 51°13.69 2°55.809 17.0106 0.075713 0.396889 -3.020363
2011-05-09 07:21:01 51°13.691 2°55.803 17.0103 0.075713 0.396895 -3.020363
2011-05-09 07:21:06 51°13.692 2°55.795 17.0109 0.075713 0.396902 -3.020363
2011-05-09 07:21:11 51°13.693 2°55.787 17.01 0.075713 0.396902 -3.020363
2011-05-09 07:21:16 51°13.693 2°55.779 17.0107 0.075713 0.396902 -3.020363
2011-05-09 07:21:21 51°13.693 2°55.772 17.0121 0.075713 0.396908 -3.020363
2011-05-09 07:21:26 51°13.693 2°55.765 17.0132 0.075713 0.396908 -3.020363
2011-05-09 07:21:31 51°13.693 2°55.759 17.0146 0.075713 0.396908 -3.020363
2011-05-09 07:21:36 51°13.693 2°55.753 17.0168 0.075713 0.396908 -3.020363
2011-05-09 07:21:41 51°13.693 2°55.748 17.0186 0.075713 0.396908 -3.020363
2011-05-09 07:21:46 51°13.694 2°55.745 17.0318 0.075713 0.396915 -3.020363
2011-05-09 07:21:51 51°13.694 2°55.744 17.0376 0.075713 0.396922 -3.020363
2011-05-09 07:21:56 51°13.695 2°55.744 17.0385 0.075713 0.396922 -3.020363
2011-05-09 07:22:01 51°13.696 2°55.744 17.0375 0.075713 0.396922 -3.020363
2011-05-09 07:22:05 51°13.697 2°55.744 17.0368 0.075713 0.396928 -3.020363
2011-05-09 07:22:10 51°13.699 2°55.745 17.0377 0.075713 0.396935 -3.020363
2011-05-09 07:22:15 51°13.701 2°55.746 17.0379 0.075713 0.396935 -3.020363
2011-05-09 07:22:20 51°13.703 2°55.746 17.0383 0.075713 0.396942 -3.020363
2011-05-09 07:22:25 51°13.705 2°55.746 17.038 0.075713 0.396942 -3.020363
2011-05-09 07:22:31 51°13.709 2°55.747 17.0384 0.075713 0.396942 -3.020363
2011-05-09 07:22:35 51°13.711 2°55.746 17.0407 0.075713 0.396942 -3.020363
2011-05-09 07:22:41 51°13.715 2°55.746 17.051 0.075713 0.396935 -3.020363
2011-05-09 07:22:46 51°13.719 2°55.744 17.0565 0.075713 0.396942 -3.020363
2011-05-09 07:22:50 51°13.722 2°55.743 17.0565 0.075713 0.396942 -3.020363
2011-05-09 07:22:55 51°13.726 2°55.74 17.0572 0.075713 0.396942 -3.020363
2011-05-09 07:23:00 51°13.731 2°55.736 17.0579 0.075713 0.396948 -3.020363
2011-05-09 07:23:05 51°13.736 2°55.731 17.0511 0.075713 0.396948 -3.020363
2011-05-09 07:23:10 51°13.741 2°55.725 17.0404 0.075713 0.396942 -3.020363
2011-05-09 07:23:14 51°13.746 2°55.721 17.0314 0.075713 0.396948 -3.020363
2011-05-09 07:23:19 51°13.752 2°55.714 17.02 0.075713 0.396942 -3.020363
2011-05-09 07:23:24 51°13.759 2°55.707 17.0089 0.075713 0.396942 -3.020363
2011-05-09 07:23:29 51°13.766 2°55.699 17.0023 0.075713 0.396942 -3.020363
2011-05-09 07:23:34 51°13.774 2°55.691 16.9955 0.075713 0.396935 -3.020363
2011-05-09 07:23:39 51°13.782 2°55.683 16.9827 0.075713 0.396942 -3.020363
2011-05-09 07:23:43 51°13.789 2°55.676 16.9675 0.075713 0.396942 -3.020363
2011-05-09 07:23:48 51°13.799 2°55.667 16.9575 0.075713 0.396948 -3.020363
2011-05-09 07:23:54 51°13.811 2°55.656 16.9572 0.075713 0.396948 -3.020363
2011-05-09 07:23:58 51°13.819 2°55.65 16.9618 0.075713 0.396948 -3.020363
2011-05-09 07:24:03 51°13.829 2°55.641 16.9672 0.075713 0.396955 -3.020363
2011-05-09 07:24:08 51°13.84 2°55.633 16.9728 0.075713 0.396955 -3.020363
2011-05-09 07:24:13 51°13.851 2°55.624 16.9727 0.075713 0.396968 -3.020363
2011-05-09 07:24:18 51°13.862 2°55.615 16.9693 0.075713 0.396968 -3.020363
2011-05-09 07:24:23 51°13.874 2°55.607 16.9711 0.075713 0.396968 -3.020363
2011-05-09 07:24:28 51°13.885 2°55.598 16.979 0.075713 0.396975 -3.020363
2011-05-09 07:24:33 51°13.896 2°55.589 16.9839 0.075713 0.396981 -3.020363
2011-05-09 07:24:38 51°13.908 2°55.58 16.9922 0.075713 0.396988 -3.020363
2011-05-09 07:24:42 51°13.918 2°55.572 16.9923 0.075713 0.396995 -3.020363
2011-05-09 07:24:48 51°13.932 2°55.562 16.9956 0.075713 0.397001 -3.020363
2011-05-09 07:24:53 51°13.944 2°55.554 16.9954 0.075713 0.397001 -3.020363
2011-05-09 07:24:58 51°13.956 2°55.545 16.9976 0.075713 0.397001 -3.020363
2011-05-09 07:25:02 51°13.966 2°55.538 17.0011 0.075713 0.397008 -3.020363
2011-05-09 07:25:08 51°13.98 2°55.527 17.0054 0.075713 0.397014 -3.020363
2011-05-09 07:25:13 51°13.992 2°55.518 17.0063 0.075713 0.397014 -3.020363
2011-05-09 07:25:18 51°14.004 2°55.509 17.0035 0.075713 0.397028 -3.020363
2011-05-09 07:25:22 51°14.013 2°55.501 17.0049 0.075713 0.397028 -3.020363
2011-05-09 07:25:28 51°14.028 2°55.49 17.0088 0.075713 0.397028 -3.020363
2011-05-09 07:25:33 51°14.04 2°55.481 17.0131 0.075713 0.397034 -3.020363
2011-05-09 07:25:38 51°14.052 2°55.472 17.0189 0.075713 0.397041 -3.020363
2011-05-09 07:25:42 51°14.061 2°55.465 17.0252 0.075713 0.397041 -3.020363
2011-05-09 07:25:47 51°14.073 2°55.456 17.0244 0.075713 0.397048 -3.020363
2011-05-09 07:25:52 51°14.085 2°55.447 17.0226 0.075713 0.397048 -3.020363
2011-05-09 07:25:57 51°14.097 2°55.438 17.0232 0.075713 0.397048 -3.020363
2011-05-09 07:26:02 51°14.109 2°55.429 17.0258 0.075713 0.397054 -3.020363
2011-05-09 07:26:07 51°14.121 2°55.42 16.8931 0.075713 0.397054 -3.020363
2011-05-09 07:26:12 51°14.134 2°55.412 16.9006 0.075713 0.397061 -3.020363
2011-05-09 07:26:19 51°14.151 2°55.4 16.9138 0.075713 0.397067 -3.020363
2011-05-09 07:26:23 51°14.16 2°55.392 16.9177 0.075713 0.397067 -3.020363
2011-05-09 07:26:28 51°14.172 2°55.382 16.9303 0.075713 0.397074 -3.020363
2011-05-09 07:26:32 51°14.182 2°55.375 16.9485 0.075713 0.397081 -3.020363
2011-05-09 07:26:38 51°14.196 2°55.362 16.9554 0.075713 0.397087 -3.020363
2011-05-09 07:26:43 51°14.208 2°55.352 16.9574 0.075713 0.397087 -3.020363
2011-05-09 07:26:48 51°14.219 2°55.34 16.9539 0.075713 0.397094 -3.020363
2011-05-09 07:26:53 51°14.23 2°55.329 16.9509 0.075713 0.397094 -3.020363
2011-05-09 07:26:58 51°14.242 2°55.317 16.9668 0.075713 0.397101 -3.020363
2011-05-09 07:27:03 51°14.253 2°55.306 16.9755 0.075713 0.397101 -3.020363
2011-05-09 07:27:08 51°14.264 2°55.294 16.9751 0.075713 0.397114 -3.020363
2011-05-09 07:27:12 51°14.274 2°55.284 16.9766 0.075713 0.39712 -3.020363
2011-05-09 07:27:18 51°14.287 2°55.27 16.98 0.075713 0.39712 -3.020363
2011-05-09 07:27:22 51°14.297 2°55.26 16.9595 0.075713 0.39712 -3.020363
2011-05-09 07:27:27 51°14.309 2°55.249 16.9587 0.075713 0.397127 -3.020363
2011-05-09 07:27:31 51°14.319 2°55.239 16.9693 0.075713 0.397134 -3.020363
2011-05-09 07:27:38 51°14.336 2°55.222 16.9666 0.075713 0.39714 -3.020363
2011-05-09 07:27:42 51°14.345 2°55.213 16.9724 0.075713 0.397147 -3.020363
2011-05-09 07:27:47 51°14.358 2°55.2 16.9777 0.075713 0.397147 -3.020363
2011-05-09 07:27:53 51°14.373 2°55.186 16.979 0.075713 0.397147 -3.020363
2011-05-09 07:27:58 51°14.385 2°55.175 16.9861 0.075713 0.397154 -3.020363
2011-05-09 07:28:03 51°14.398 2°55.163 16.9925 0.075713 0.39716 -3.020363
2011-05-09 07:28:07 51°14.408 2°55.153 16.9891 0.075713 0.397167 -3.020363
2011-05-09 07:28:12 51°14.421 2°55.142 16.979 0.075713 0.397174 -3.020363
2011-05-09 07:28:18 51°14.436 2°55.128 16.9879 0.075713 0.39718 -3.020363
2011-05-09 07:28:23 51°14.449 2°55.116 16.9958 0.075713 0.39718 -3.020363
2011-05-09 07:28:27 51°14.459 2°55.107 17.0034 0.075713 0.397193 -3.020363
2011-05-09 07:28:32 51°14.472 2°55.095 16.9976 0.075713 0.3972 -3.020363
2011-05-09 07:28:39 51°14.49 2°55.078 16.985 0.075713 0.397213 -3.020363
2011-05-09 07:28:43 51°14.5 2°55.068 16.9911 0.075713 0.39722 -3.020363
2011-05-09 07:28:48 51°14.514 2°55.056 16.9883 0.075713 0.397227 -3.020363
2011-05-09 07:28:52 51°14.524 2°55.047 17.0098 0.075713 0.397227 -3.020363
2011-05-09 07:28:57 51°14.537 2°55.034 17.0054 0.075713 0.39724 -3.020363
2011-05-09 07:29:03 51°14.553 2°55.018 17.0182 0.075713 0.397253 -3.020363
2011-05-09 07:29:08 51°14.565 2°55.003 17.0161 0.075713 0.39726 -3.020363
2011-05-09 07:29:12 51°14.575 2°54.99 17.0234 0.075713 0.397266 -3.020363
2011-05-09 07:29:18 51°14.588 2°54.968 17.0204 0.075611 0.396722 -3.020363
2011-05-09 07:29:23 51°14.598 2°54.949 17.0121 0.075611 0.396722 -3.020363
2011-05-09 07:29:28 51°14.608 2°54.929 16.9926 0.075713 0.397286 -3.020363
2011-05-09 07:29:32 51°14.615 2°54.912 16.9822 0.075713 0.397293 -3.020363
2011-05-09 07:29:38 51°14.625 2°54.885 16.995 0.075713 0.3973 -3.020363
2011-05-09 07:29:42 51°14.631 2°54.867 17.0103 0.075713 0.397306 -3.020363
2011-05-09 07:29:48 51°14.639 2°54.839 17.0182 0.075713 0.397313 -3.020363
2011-05-09 07:29:52 51°14.643 2°54.819 17.0244 0.075713 0.397313 -3.020363
2011-05-09 07:29:58 51°14.648 2°54.789 17.0256 0.075713 0.397326 -3.020363
2011-05-09 07:30:03 51°14.65 2°54.762 17.0148 0.075713 0.397333 -3.020363
2011-05-09 07:30:08 51°14.651 2°54.736 17.0208 0.075713 0.397346 -3.020363
2011-05-09 07:30:12 51°14.65 2°54.715 17.0231 0.075713 0.397353 -3.020363
2011-05-09 07:30:18 51°14.648 2°54.683 17.0241 0.075713 0.397359 -3.020363
2011-05-09 07:30:23 51°14.644 2°54.657 17.0093 0.075713 0.397359 -3.020363
2011-05-09 07:30:28 51°14.639 2°54.632 16.9979 0.075713 0.397366 -3.020363
2011-05-09 07:30:32 51°14.634 2°54.612 17.0021 0.075713 0.397373 -3.020363
2011-05-09 07:30:37 51°14.626 2°54.588 16.9796 0.075713 0.397373 -3.020363
2011-05-09 07:30:42 51°14.618 2°54.565 16.9611 0.075611 0.396822 -3.020363
2011-05-09 07:30:48 51°14.606 2°54.538 16.9578 0.075611 0.396822 -3.020363
2011-05-09 07:30:52 51°14.598 2°54.52 16.9423 0.075611 0.396822 -3.020363
2011-05-09 07:30:57 51°14.588 2°54.498 16.9572 0.075611 0.396815 -3.020363
2011-05-09 07:31:02 51°14.577 2°54.475 16.9738 0.075611 0.396822 -3.020363
2011-05-09 07:31:08 51°14.564 2°54.449 16.9382 0.075713 0.397386 -3.020363
2011-05-09 07:31:12 51°14.556 2°54.431 16.9719 0.075611 0.396828 -3.020363
2011-05-09 07:31:17 51°14.545 2°54.409 16.9449 0.075611 0.396835 -3.020363
2011-05-09 07:31:23 51°14.531 2°54.382 16.9688 0.075611 0.396835 -3.020363
2011-05-09 07:31:27 51°14.523 2°54.364 16.9382 0.075611 0.396842 -3.020363
2011-05-09 07:31:33 51°14.509 2°54.337 16.9657 0.075713 0.397406 -3.020363
2011-05-09 07:31:38 51°14.498 2°54.314 16.9629 0.075611 0.396855 -3.020363
2011-05-09 07:31:43 51°14.487 2°54.291 16.9683 0.075611 0.396862 -3.020363
2011-05-09 07:31:48 51°14.477 2°54.267 16.9812 0.075611 0.396875 -3.020363
2011-05-09 07:31:53 51°14.466 2°54.243 16.9789 0.075611 0.396875 -3.020363
2011-05-09 07:31:57 51°14.458 2°54.224 16.9805 0.075713 0.397439 -3.020363
2011-05-09 07:32:03 51°14.446 2°54.195 16.9766 0.075611 0.396888 -3.020363
2011-05-09 07:32:08 51°14.436 2°54.17 16.9735 0.075611 0.396895 -3.020363
2011-05-09 07:32:13 51°14.427 2°54.145 16.9874 0.075611 0.396908 -3.020363
2011-05-09 07:32:17 51°14.419 2°54.126 16.9971 0.075611 0.396921 -3.020363
2011-05-09 07:32:22 51°14.411 2°54.101 16.9878 0.075611 0.396921 -3.020363
2011-05-09 07:32:28 51°14.4 2°54.07 17.0021 0.075611 0.396928 -3.020363
2011-05-09 07:32:33 51°14.392 2°54.045 16.9947 0.075611 0.396941 -3.020363
2011-05-09 07:32:37 51°14.385 2°54.025 17.0016 0.075611 0.396948 -3.020363
2011-05-09 07:32:42 51°14.376 2°53.999 17.0064 0.075611 0.396961 -3.020363
2011-05-09 07:32:47 51°14.368 2°53.974 17.001 0.075611 0.396968 -3.020363
2011-05-09 07:32:53 51°14.358 2°53.943 17.0001 0.075611 0.396968 -3.020363
2011-05-09 07:32:57 51°14.352 2°53.923 16.9945 0.075611 0.396974 -3.020363
2011-05-09 07:33:02 51°14.343 2°53.898 17.0099 0.075611 0.396988 -3.020363
2011-05-09 07:33:08 51°14.333 2°53.867 16.9941 0.075611 0.396994 -3.020363
2011-05-09 07:33:13 51°14.325 2°53.842 17.0183 0.075611 0.397001 -3.020363
2011-05-09 07:33:17 51°14.318 2°53.822 17.017 0.075611 0.397008 -3.020363
2011-05-09 07:33:22 51°14.309 2°53.796 17.0265 0.075611 0.397008 -3.020363
2011-05-09 07:33:27 51°14.3 2°53.771 17.0015 0.075611 0.397021 -3.020363
2011-05-09 07:33:33 51°14.289 2°53.741 17.0295 0.075611 0.397028 -3.020363
2011-05-09 07:33:37 51°14.282 2°53.721 17.0306 0.075611 0.397034 -3.020363
2011-05-09 07:33:42 51°14.273 2°53.697 17.0264 0.075611 0.397047 -3.020363
2011-05-09 07:33:48 51°14.261 2°53.668 17.0148 0.075611 0.397054 -3.020363
2011-05-09 07:33:53 51°14.25 2°53.644 17.0074 0.075611 0.397054 -3.020363
2011-05-09 07:33:58 51°14.24 2°53.62 17.0215 0.075611 0.397054 -3.020363
2011-05-09 07:34:03 51°14.23 2°53.597 17.0204 0.075611 0.397067 -3.020363
2011-05-09 07:34:08 51°14.219 2°53.573 17.0116 0.075611 0.397074 -3.020363
2011-05-09 07:34:13 51°14.209 2°53.55 17.0127 0.075611 0.397081 -3.020363
2011-05-09 07:34:18 51°14.198 2°53.526 17.0124 0.075611 0.397087 -3.020363
2011-05-09 07:34:22 51°14.19 2°53.507 17.0216 0.075611 0.397087 -3.020363
2011-05-09 07:34:28 51°14.177 2°53.479 17.0187 0.075611 0.397101 -3.020363
2011-05-09 07:34:33 51°14.167 2°53.455 17.0081 0.075611 0.397107 -3.020363
2011-05-09 07:34:38 51°14.156 2°53.432 17.0209 0.075611 0.397121 -3.020363
2011-05-09 07:34:42 51°14.148 2°53.413 17.0135 0.075611 0.397127 -3.020363
2011-05-09 07:34:47 51°14.138 2°53.389 17.0286 0.075611 0.397147 -3.020363
2011-05-09 07:34:53 51°14.126 2°53.36 17.012 0.075611 0.397147 -3.020363
2011-05-09 07:34:58 51°14.116 2°53.336 17.0148 0.075611 0.397154 -3.020363
2011-05-09 07:35:02 51°14.109 2°53.316 17.0154 0.075611 0.397167 -3.020363
2011-05-09 07:35:08 51°14.097 2°53.286 17.0217 0.075611 0.39718 -3.020363
2011-05-09 07:35:13 51°14.089 2°53.261 17.0222 0.075611 0.397194 -3.020363
2011-05-09 07:35:18 51°14.08 2°53.235 17.04 0.075611 0.397207 -3.020363
2011-05-09 07:35:22 51°14.073 2°53.215 17.0227 0.075611 0.397207 -3.020363
2011-05-09 07:35:28 51°14.063 2°53.184 17.0484 0.075611 0.39722 -3.020363
2011-05-09 07:35:33 51°14.054 2°53.159 17.0211 0.075611 0.397234 -3.020363
2011-05-09 07:35:38 51°14.046 2°53.133 17.0471 0.075611 0.397253 -3.020363
2011-05-09 07:35:42 51°14.039 2°53.112 17.017 0.075611 0.39726 -3.020363
2011-05-09 07:35:48 51°14.029 2°53.081 17.0381 0.075611 0.397273 -3.020363
2011-05-09 07:35:52 51°14.021 2°53.061 17.0415 0.075611 0.397273 -3.020363
2011-05-09 07:35:57 51°14.013 2°53.035 17.0223 0.075611 0.397287 -3.020363
2011-05-09 07:36:02 51°14.004 2°53.01 17.0369 0.075611 0.397293 -3.020363
2011-05-09 07:36:07 51°13.996 2°52.984 17.0301 0.075611 0.397307 -3.020363
2011-05-09 07:36:13 51°13.985 2°52.953 17.0482 0.075611 0.39732 -3.020363
2011-05-09 07:36:18 51°13.977 2°52.928 17.0446 0.075611 0.397327 -3.020363
2011-05-09 07:36:23 51°13.968 2°52.902 17.0593 0.075611 0.397327 -3.020363
2011-05-09 07:36:27 51°13.961 2°52.882 17.0461 0.075611 0.39734 -3.020363
2011-05-09 07:36:33 51°13.95 2°52.851 17.0546 0.075611 0.397347 -3.020363
2011-05-09 07:36:38 51°13.94 2°52.826 17.0565 0.075611 0.397353 -3.020363
2011-05-09 07:36:43 51°13.931 2°52.801 17.0564 0.075611 0.397373 -3.020363
2011-05-09 07:36:48 51°13.921 2°52.777 17.04 0.075611 0.39738 -3.020363
2011-05-09 07:36:53 51°13.911 2°52.752 17.0533 0.075611 0.39738 -3.020363
2011-05-09 07:36:58 51°13.9 2°52.729 17.0249 0.075611 0.397393 -3.020363
2011-05-09 07:37:03 51°13.89 2°52.704 17.0633 0.075611 0.3974 -3.020363
2011-05-09 07:37:07 51°13.882 2°52.686 17.0296 0.075611 0.397413 -3.020363
2011-05-09 07:37:13 51°13.869 2°52.657 17.0588 0.075611 0.397433 -3.020363
2011-05-09 07:37:18 51°13.859 2°52.633 17.0339 0.075611 0.39744 -3.020363
2011-05-09 07:37:23 51°13.848 2°52.609 17.057 0.075611 0.39744 -3.020363
2011-05-09 07:37:27 51°13.84 2°52.59 17.0464 0.075611 0.397446 -3.020363
2011-05-09 07:37:33 51°13.828 2°52.561 17.0499 0.075611 0.39746 -3.020363
2011-05-09 07:37:38 51°13.817 2°52.537 17.0271 0.075611 0.39746 -3.020363
2011-05-09 07:37:43 51°13.808 2°52.512 17.0512 0.075611 0.397466 -3.020363
2011-05-09 07:37:47 51°13.8 2°52.493 17.0462 0.075611 0.397466 -3.020363
2011-05-09 07:37:53 51°13.788 2°52.463 17.0416 0.075611 0.397466 -3.020363
2011-05-09 07:37:58 51°13.779 2°52.438 17.0629 0.075611 0.39748 -3.020363
2011-05-09 07:38:03 51°13.77 2°52.412 17.0648 0.075611 0.397486 -3.020363
2011-05-09 07:38:07 51°13.763 2°52.392 17.0718 0.075611 0.3975 -3.020363
2011-05-09 07:38:13 51°13.753 2°52.362 17.0752 0.075611 0.397513 -3.020363
2011-05-09 07:38:18 51°13.744 2°52.336 17.0731 0.075611 0.397533 -3.020363
2011-05-09 07:38:23 51°13.736 2°52.311 17.0719 0.075611 0.397533 -3.020363
2011-05-09 07:38:28 51°13.727 2°52.285 17.077 0.075611 0.397546 -3.020363
2011-05-09 07:38:33 51°13.718 2°52.26 17.0843 0.075611 0.397566 -3.020363
2011-05-09 07:38:38 51°13.709 2°52.234 17.0841 0.075508 0.397021 -3.020363
2011-05-09 07:38:43 51°13.7 2°52.209 17.0899 0.075611 0.3976 -3.020363
2011-05-09 07:38:48 51°13.691 2°52.184 17.084 0.075611 0.397613 -3.020363
2011-05-09 07:38:53 51°13.682 2°52.159 17.0854 0.075611 0.397613 -3.020363
2011-05-09 07:38:58 51°13.672 2°52.135 17.0986 0.075611 0.39762 -3.020363
2011-05-09 07:39:03 51°13.662 2°52.11 17.0636 0.075508 0.397081 -3.020363
2011-05-09 07:39:08 51°13.651 2°52.086 17.0847 0.075508 0.397088 -3.020363
2011-05-09 07:39:12 51°13.643 2°52.067 17.0753 0.075508 0.397094 -3.020363
2011-05-09 07:39:18 51°13.631 2°52.039 17.0764 0.075508 0.397101 -3.020363
2011-05-09 07:39:22 51°13.622 2°52.02 17.0739 0.075508 0.397101 -3.020363
2011-05-09 07:39:28 51°13.61 2°51.991 17.0799 0.075508 0.397114 -3.020363
2011-05-09 07:39:32 51°13.601 2°51.972 17.0926 0.075508 0.397121 -3.020363
2011-05-09 07:39:38 51°13.589 2°51.943 17.0701 0.075508 0.397141 -3.020363
2011-05-09 07:39:43 51°13.578 2°51.919 17.0706 0.075508 0.397148 -3.020363
2011-05-09 07:39:48 51°13.568 2°51.895 17.051 0.075508 0.397154 -3.020363
2011-05-09 07:39:52 51°13.56 2°51.876 17.0759 0.075508 0.397154 -3.020363
2011-05-09 07:39:58 51°13.55 2°51.846 17.0804 0.075508 0.397167 -3.020363
2011-05-09 07:40:03 51°13.541 2°51.821 17.0859 0.075508 0.397181 -3.020363
2011-05-09 07:40:08 51°13.533 2°51.795 17.0881 0.075508 0.397194 -3.020363
2011-05-09 07:40:12 51°13.526 2°51.774 17.1003 0.075508 0.397214 -3.020363
2011-05-09 07:40:18 51°13.517 2°51.744 17.0854 0.075508 0.397221 -3.020363
2011-05-09 07:40:23 51°13.509 2°51.718 17.1021 0.075508 0.397221 -3.020363
2011-05-09 07:40:28 51°13.501 2°51.692 17.0788 0.075508 0.397234 -3.020363
2011-05-09 07:40:32 51°13.495 2°51.671 17.1008 0.075508 0.397241 -3.020363
2011-05-09 07:40:37 51°13.487 2°51.645 17.1009 0.075508 0.397261 -3.020363
2011-05-09 07:40:43 51°13.478 2°51.614 17.1024 0.075508 0.397267 -3.020363
2011-05-09 07:40:48 51°13.47 2°51.588 17.1091 0.075508 0.397281 -3.020363
2011-05-09 07:40:52 51°13.464 2°51.568 17.1067 0.075508 0.397281 -3.020363
2011-05-09 07:40:58 51°13.455 2°51.536 17.1082 0.075508 0.397287 -3.020363
2011-05-09 07:41:03 51°13.447 2°51.51 17.094 0.075508 0.397301 -3.020363
2011-05-09 07:41:08 51°13.439 2°51.485 17.1042 0.075508 0.397307 -3.020363
2011-05-09 07:41:12 51°13.434 2°51.463 17.1049 0.075508 0.397321 -3.020363
2011-05-09 07:41:17 51°13.426 2°51.438 17.1103 0.075508 0.397327 -3.020363
2011-05-09 07:41:23 51°13.416 2°51.407 17.1172 0.075508 0.397327 -3.020363
2011-05-09 07:41:28 51°13.409 2°51.381 17.1207 0.075508 0.397341 -3.020363
2011-05-09 07:41:32 51°13.403 2°51.36 17.0987 0.075508 0.397354 -3.020363
2011-05-09 07:41:38 51°13.393 2°51.329 17.1175 0.075508 0.397361 -3.020363
2011-05-09 07:41:43 51°13.385 2°51.303 17.1222 0.075508 0.397374 -3.020363
2011-05-09 07:41:48 51°13.377 2°51.277 17.1288 0.075508 0.397387 -3.020363
2011-05-09 07:41:52 51°13.371 2°51.257 17.1334 0.075508 0.397387 -3.020363
2011-05-09 07:41:58 51°13.361 2°51.226 17.1276 0.075508 0.397401 -3.020363
2011-05-09 07:42:03 51°13.351 2°51.201 17.1227 0.075508 0.397414 -3.020363
2011-05-09 07:42:08 51°13.343 2°51.176 17.1179 0.075508 0.397421 -3.020363
2011-05-09 07:42:12 51°13.335 2°51.157 17.1171 0.075508 0.397434 -3.020363
2011-05-09 07:42:17 51°13.326 2°51.132 17.1263 0.075508 0.397447 -3.020363
2011-05-09 07:42:23 51°13.314 2°51.103 17.1128 0.075508 0.397447 -3.020363
2011-05-09 07:42:28 51°13.305 2°51.079 17.1225 0.075508 0.397447 -3.020363
2011-05-09 07:42:32 51°13.297 2°51.06 17.1077 0.075508 0.397461 -3.020363
2011-05-09 07:42:37 51°13.288 2°51.035 17.1172 0.075508 0.397467 -3.020363
2011-05-09 07:42:43 51°13.276 2°51.006 17.122 0.075508 0.397474 -3.020363
2011-05-09 07:42:48 51°13.267 2°50.981 17.1044 0.075508 0.397487 -3.020363
2011-05-09 07:42:52 51°13.26 2°50.961 17.1193 0.075508 0.397487 -3.020363
2011-05-09 07:42:57 51°13.252 2°50.936 17.1236 0.075508 0.397494 -3.020363
2011-05-09 07:43:03 51°13.242 2°50.905 17.1261 0.075508 0.397507 -3.020363
2011-05-09 07:43:08 51°13.234 2°50.879 17.1286 0.075508 0.397521 -3.020363
2011-05-09 07:43:12 51°13.228 2°50.859 17.121 0.075508 0.397527 -3.020363
2011-05-09 07:43:18 51°13.219 2°50.827 17.1362 0.075508 0.397547 -3.020363
2011-05-09 07:43:23 51°13.211 2°50.801 17.1436 0.075508 0.397547 -3.020363
2011-05-09 07:43:28 51°13.203 2°50.775 17.1404 0.075508 0.397554 -3.020363
2011-05-09 07:43:32 51°13.197 2°50.754 17.1446 0.075508 0.397567 -3.020363
2011-05-09 07:43:37 51°13.189 2°50.728 17.1385 0.075508 0.397581 -3.020363
2011-05-09 07:43:43 51°13.18 2°50.697 17.1386 0.075508 0.397581 -3.020363
2011-05-09 07:43:48 51°13.172 2°50.67 17.1523 0.075508 0.397594 -3.020363
2011-05-09 07:43:52 51°13.166 2°50.65 17.1449 0.075508 0.397594 -3.020363
2011-05-09 07:43:58 51°13.157 2°50.618 17.1565 0.075405 0.397041 -3.020363
2011-05-09 07:44:03 51°13.149 2°50.592 17.1429 0.075508 0.397608 -3.020363
2011-05-09 07:44:08 51°13.14 2°50.566 17.1578 0.075508 0.397621 -3.020363
2011-05-09 07:44:12 51°13.134 2°50.546 17.1578 0.075508 0.397628 -3.020363
2011-05-09 07:44:18 51°13.124 2°50.515 17.1645 0.075405 0.397081 -3.020363
2011-05-09 07:44:23 51°13.115 2°50.49 17.163 0.075405 0.397081 -3.020363
2011-05-09 07:44:28 51°13.106 2°50.464 17.1593 0.075405 0.397088 -3.020363
2011-05-09 07:44:32 51°13.099 2°50.444 17.1559 0.075405 0.397101 -3.020363
2011-05-09 07:44:37 51°13.09 2°50.419 17.1594 0.075405 0.397115 -3.020363
2011-05-09 07:44:43 51°13.078 2°50.39 17.1535 0.075405 0.397121 -3.020363
2011-05-09 07:44:48 51°13.069 2°50.364 17.169 0.075405 0.397135 -3.020363
2011-05-09 07:44:52 51°13.061 2°50.345 17.1601 0.075405 0.397135 -3.020363
2011-05-09 07:44:57 51°13.052 2°50.32 17.1418 0.075405 0.397148 -3.020363
2011-05-09 07:45:03 51°13.041 2°50.29 17.1544 0.075405 0.397155 -3.020363
2011-05-09 07:45:08 51°13.032 2°50.265 17.1464 0.075405 0.397162 -3.020363
2011-05-09 07:45:12 51°13.025 2°50.245 17.1556 0.075405 0.397175 -3.020363
2011-05-09 07:45:17 51°13.016 2°50.219 17.1426 0.075405 0.397182 -3.020363
2011-05-09 07:45:23 51°13.006 2°50.188 17.1606 0.075405 0.397182 -3.020363
2011-05-09 07:45:28 51°12.997 2°50.163 17.1609 0.075405 0.397195 -3.020363
2011-05-09 07:45:32 51°12.991 2°50.142 17.167 0.075405 0.397208 -3.020363
2011-05-09 07:45:38 51°12.981 2°50.111 17.1685 0.075405 0.397222 -3.020363
2011-05-09 07:45:43 51°12.973 2°50.085 17.171 0.075405 0.397228 -3.020363
2011-05-09 07:45:48 51°12.965 2°50.059 17.166 0.075405 0.397242 -3.020363
2011-05-09 07:45:52 51°12.958 2°50.038 17.1812 0.075405 0.397242 -3.020363
2011-05-09 07:45:57 51°12.951 2°50.012 17.184 0.075405 0.397255 -3.020363
2011-05-09 07:46:03 51°12.941 2°49.98 17.1887 0.075405 0.397262 -3.020363
2011-05-09 07:46:08 51°12.933 2°49.954 17.1745 0.075405 0.397275 -3.020363
2011-05-09 07:46:12 51°12.927 2°49.933 17.1963 0.075405 0.397288 -3.020363
2011-05-09 07:46:18 51°12.917 2°49.902 17.1691 0.075405 0.397302 -3.020363
2011-05-09 07:46:23 51°12.91 2°49.875 17.171 0.075405 0.397302 -3.020363
2011-05-09 07:46:28 51°12.902 2°49.849 17.182 0.075405 0.397315 -3.020363
2011-05-09 07:46:32 51°12.895 2°49.828 17.1749 0.075405 0.397328 -3.020363
2011-05-09 07:46:38 51°12.886 2°49.796 17.1971 0.075405 0.397342 -3.020363
2011-05-09 07:46:43 51°12.878 2°49.77 17.1911 0.075405 0.397355 -3.020363
2011-05-09 07:46:48 51°12.87 2°49.744 17.1947 0.075405 0.397375 -3.020363
2011-05-09 07:46:52 51°12.864 2°49.723 17.2001 0.075405 0.397375 -3.020363
2011-05-09 07:46:57 51°12.856 2°49.697 17.2025 0.075405 0.397388 -3.020363
2011-05-09 07:47:03 51°12.846 2°49.666 17.2061 0.075405 0.397402 -3.020363
2011-05-09 07:47:08 51°12.837 2°49.64 17.2065 0.075405 0.397422 -3.020363
2011-05-09 07:47:12 51°12.83 2°49.62 17.2166 0.075405 0.397435 -3.020363
2011-05-09 07:47:18 51°12.819 2°49.589 17.1958 0.075405 0.397455 -3.020363
2011-05-09 07:47:23 51°12.81 2°49.564 17.1769 0.075405 0.397455 -3.020363
2011-05-09 07:47:28 51°12.801 2°49.539 17.186 0.075405 0.397469 -3.020363
2011-05-09 07:47:32 51°12.794 2°49.519 17.1927 0.075405 0.397482 -3.020363
2011-05-09 07:47:37 51°12.785 2°49.494 17.2029 0.075405 0.397495 -3.020363
2011-05-09 07:47:42 51°12.776 2°49.469 17.2002 0.075405 0.397515 -3.020363
2011-05-09 07:47:48 51°12.765 2°49.439 17.2024 0.075405 0.397529 -3.020363
2011-05-09 07:47:52 51°12.758 2°49.418 17.2112 0.075405 0.397529 -3.020363
2011-05-09 07:47:57 51°12.749 2°49.393 17.2137 0.075405 0.397542 -3.020363
2011-05-09 07:48:03 51°12.739 2°49.362 17.2018 0.075405 0.397556 -3.020363
2011-05-09 07:48:08 51°12.731 2°49.336 17.208 0.075405 0.397569 -3.020363
2011-05-09 07:48:12 51°12.723 2°49.316 17.1963 0.075405 0.397582 -3.020363
2011-05-09 07:48:18 51°12.713 2°49.285 17.2188 0.075405 0.397602 -3.020363
2011-05-09 07:48:23 51°12.705 2°49.259 17.2087 0.075405 0.397602 -3.020363
2011-05-09 07:48:28 51°12.696 2°49.234 17.204 0.075405 0.397616 -3.020363
2011-05-09 07:48:32 51°12.69 2°49.213 17.2206 0.075405 0.397629 -3.020363
2011-05-09 07:48:37 51°12.681 2°49.187 17.2188 0.075405 0.397649 -3.020363
2011-05-09 07:48:43 51°12.671 2°49.156 17.2299 0.075302 0.397102 -3.020363
2011-05-09 07:48:48 51°12.662 2°49.131 17.2086 0.075405 0.397676 -3.020363
2011-05-09 07:48:52 51°12.655 2°49.11 17.2258 0.075405 0.397676 -3.020363
2011-05-09 07:48:56 51°12.648 2°49.09 17.2218 0.075405 0.397696 -3.020363
2011-05-09 07:49:03 51°12.636 2°49.054 17.227 0.075302 0.397149 -3.020363
2011-05-09 07:49:08 51°12.627 2°49.028 17.2142 0.075302 0.397162 -3.020363
2011-05-09 07:49:12 51°12.62 2°49.008 17.211 0.075302 0.397176 -3.020363
2011-05-09 07:49:17 51°12.611 2°48.982 17.2227 0.075302 0.397189 -3.020363
2011-05-09 07:49:23 51°12.6 2°48.951 17.2146 0.075302 0.397189 -3.020363
2011-05-09 07:49:28 51°12.591 2°48.926 17.2287 0.075302 0.397203 -3.020363
2011-05-09 07:49:32 51°12.584 2°48.905 17.2244 0.075302 0.397223 -3.020363
2011-05-09 07:49:38 51°12.574 2°48.874 17.2366 0.075302 0.397236 -3.020363
2011-05-09 07:49:42 51°12.567 2°48.854 17.2281 0.075302 0.397256 -3.020363
2011-05-09 07:49:48 51°12.557 2°48.824 17.2346 0.075302 0.397263 -3.020363
2011-05-09 07:49:52 51°12.55 2°48.803 17.2283 0.075302 0.397263 -3.020363
2011-05-09 07:49:58 51°12.539 2°48.771 17.2319 0.075302 0.397283 -3.020363
2011-05-09 07:50:02 51°12.532 2°48.751 17.226 0.075302 0.397296 -3.020363
2011-05-09 07:50:08 51°12.522 2°48.72 17.2256 0.075302 0.397316 -3.020363
2011-05-09 07:50:12 51°12.516 2°48.699 17.2187 0.075302 0.397323 -3.020363
2011-05-09 07:50:18 51°12.507 2°48.668 17.2401 0.075302 0.397343 -3.020363
2011-05-09 07:50:23 51°12.498 2°48.641 17.2193 0.075302 0.397343 -3.020363
2011-05-09 07:50:28 51°12.491 2°48.615 17.2412 0.075302 0.397356 -3.020363
2011-05-09 07:50:32 51°12.484 2°48.594 17.2349 0.075302 0.39737 -3.020363
2011-05-09 07:50:38 51°12.475 2°48.562 17.239 0.075302 0.397383 -3.020363
2011-05-09 07:50:42 51°12.469 2°48.541 17.2271 0.075302 0.397403 -3.020363
2011-05-09 07:50:48 51°12.46 2°48.509 17.2512 0.075302 0.397423 -3.020363
2011-05-09 07:50:52 51°12.453 2°48.488 17.235 0.075302 0.397423 -3.020363
2011-05-09 07:50:58 51°12.444 2°48.456 17.2515 0.075302 0.39743 -3.020363
2011-05-09 07:51:02 51°12.437 2°48.435 17.2305 0.075302 0.39745 -3.020363
2011-05-09 07:51:08 51°12.427 2°48.403 17.2482 0.075302 0.397463 -3.020363
2011-05-09 07:51:12 51°12.421 2°48.382 17.2454 0.075302 0.397477 -3.020363
2011-05-09 07:51:17 51°12.413 2°48.356 17.2602 0.075302 0.397497 -3.020363
2011-05-09 07:51:23 51°12.404 2°48.324 17.2582 0.075302 0.397497 -3.020363
2011-05-09 07:51:28 51°12.396 2°48.297 17.2666 0.075302 0.397517 -3.020363
2011-05-09 07:51:32 51°12.39 2°48.276 17.2502 0.075302 0.397537 -3.020363
2011-05-09 07:51:37 51°12.381 2°48.25 17.2667 0.075302 0.397551 -3.020363
2011-05-09 07:51:43 51°12.372 2°48.219 17.2718 0.075302 0.397577 -3.020363
2011-05-09 07:51:48 51°12.363 2°48.192 17.272 0.075302 0.397597 -3.020363
2011-05-09 07:51:52 51°12.356 2°48.172 17.2781 0.075302 0.397597 -3.020363
2011-05-09 07:51:57 51°12.348 2°48.146 17.2786 0.075302 0.397624 -3.020363
2011-05-09 07:52:02 51°12.338 2°48.121 17.2745 0.075302 0.397638 -3.020363
2011-05-09 07:52:08 51°12.327 2°48.09 17.2792 0.075302 0.397658 -3.020363
2011-05-09 07:52:12 51°12.32 2°48.07 17.2637 0.075302 0.397671 -3.020363
2011-05-09 07:52:17 51°12.31 2°48.046 17.2389 0.075302 0.397685 -3.020363
2011-05-09 07:52:23 51°12.3 2°48.015 17.2714 0.075302 0.397685 -3.020363
2011-05-09 07:52:28 51°12.29 2°47.99 17.2474 0.075199 0.397144 -3.020363
2011-05-09 07:52:32 51°12.283 2°47.97 17.257 0.075302 0.397718 -3.020363
2011-05-09 07:52:38 51°12.272 2°47.939 17.2661 0.075199 0.39717 -3.020363
2011-05-09 07:52:43 51°12.263 2°47.913 17.2524 0.075199 0.39719 -3.020363
2011-05-09 07:52:48 51°12.254 2°47.888 17.2677 0.075199 0.397211 -3.020363
2011-05-09 07:52:52 51°12.247 2°47.867 17.2671 0.075199 0.397211 -3.020363
2011-05-09 07:52:57 51°12.239 2°47.841 17.2644 0.075199 0.397224 -3.020363
2011-05-09 07:53:03 51°12.228 2°47.81 17.2625 0.075199 0.397244 -3.020363
2011-05-09 07:53:08 51°12.22 2°47.783 17.2787 0.075199 0.397257 -3.020363
2011-05-09 07:53:12 51°12.213 2°47.763 17.2702 0.075199 0.397278 -3.020363
2011-05-09 07:53:18 51°12.203 2°47.731 17.2708 0.075199 0.397291 -3.020363
2011-05-09 07:53:23 51°12.195 2°47.705 17.2733 0.075199 0.397291 -3.020363
2011-05-09 07:53:28 51°12.186 2°47.679 17.252 0.075199 0.397311 -3.020363
2011-05-09 07:53:32 51°12.18 2°47.657 17.2746 0.075199 0.397331 -3.020363
2011-05-09 07:53:37 51°12.173 2°47.631 17.2699 0.075199 0.397345 -3.020363
2011-05-09 07:53:43 51°12.164 2°47.598 17.2737 0.075199 0.397358 -3.020363
2011-05-09 07:53:48 51°12.157 2°47.571 17.2726 0.075199 0.397378 -3.020363
2011-05-09 07:53:52 51°12.152 2°47.549 17.2752 0.075199 0.397378 -3.020363
2011-05-09 07:53:57 51°12.146 2°47.521 17.2809 0.075199 0.397392 -3.020363
2011-05-09 07:54:03 51°12.138 2°47.488 17.2929 0.075199 0.397412 -3.020363
2011-05-09 07:54:08 51°12.132 2°47.46 17.2917 0.075199 0.397432 -3.020363
2011-05-09 07:54:12 51°12.128 2°47.438 17.2921 0.075199 0.397452 -3.020363
2011-05-09 07:54:18 51°12.121 2°47.404 17.292 0.075199 0.397465 -3.020363
2011-05-09 07:54:23 51°12.115 2°47.376 17.3016 0.075199 0.397465 -3.020363
2011-05-09 07:54:28 51°12.11 2°47.348 17.3077 0.075199 0.397479 -3.020363
2011-05-09 07:54:32 51°12.105 2°47.325 17.3152 0.075199 0.397499 -3.020363
2011-05-09 07:54:37 51°12.099 2°47.298 17.3036 0.075199 0.397512 -3.020363
2011-05-09 07:54:43 51°12.093 2°47.264 17.3044 0.075199 0.397532 -3.020363
2011-05-09 07:54:48 51°12.086 2°47.236 17.3105 0.075199 0.397546 -3.020363
2011-05-09 07:54:52 51°12.081 2°47.214 17.3161 0.075199 0.397546 -3.020363
2011-05-09 07:54:58 51°12.074 2°47.182 17.3328 0.075199 0.397559 -3.020363
2011-05-09 07:55:03 51°12.067 2°47.155 17.3125 0.075199 0.397579 -3.020363
2011-05-09 07:55:08 51°12.06 2°47.128 17.3073 0.075199 0.397593 -3.020363
2011-05-09 07:55:12 51°12.054 2°47.106 17.3172 0.075199 0.397606 -3.020363
2011-05-09 07:55:18 51°12.045 2°47.074 17.3169 0.075199 0.39762 -3.020363
2011-05-09 07:55:23 51°12.038 2°47.048 17.3116 0.075199 0.39762 -3.020363
2011-05-09 07:55:28 51°12.031 2°47.022 17.3019 0.075199 0.397633 -3.020363
2011-05-09 07:55:32 51°12.025 2°47 17.2833 0.075199 0.397646 -3.020363
2011-05-09 07:55:38 51°12.016 2°46.968 17.303 0.075199 0.39766 -3.020363
2011-05-09 07:55:43 51°12.009 2°46.941 17.2912 0.075199 0.39768 -3.020363
2011-05-09 07:55:48 51°12.003 2°46.914 17.3107 0.075199 0.397694 -3.020363
2011-05-09 07:55:52 51°11.997 2°46.892 17.3101 0.075199 0.397694 -3.020363
2011-05-09 07:55:58 51°11.99 2°46.859 17.3141 0.075199 0.397707 -3.020363
2011-05-09 07:56:03 51°11.984 2°46.832 17.3143 0.075199 0.39772 -3.020363
2011-05-09 07:56:08 51°11.978 2°46.804 17.2997 0.075097 0.397179 -3.020363
2011-05-09 07:56:12 51°11.973 2°46.782 17.325 0.075097 0.397192 -3.020363
2011-05-09 07:56:17 51°11.968 2°46.754 17.3125 0.075097 0.397212 -3.020363
2011-05-09 07:56:23 51°11.961 2°46.721 17.3095 0.075097 0.397212 -3.020363
2011-05-09 07:56:28 51°11.956 2°46.693 17.3199 0.075097 0.397226 -3.020363
2011-05-09 07:56:32 51°11.951 2°46.671 17.3162 0.075097 0.397246 -3.020363
2011-05-09 07:56:38 51°11.944 2°46.637 17.338 0.075097 0.397266 -3.020363
2011-05-09 07:56:43 51°11.938 2°46.61 17.3066 0.075097 0.397273 -3.020363
2011-05-09 07:56:48 51°11.933 2°46.581 17.3305 0.075097 0.397293 -3.020363
2011-05-09 07:56:52 51°11.928 2°46.559 17.3297 0.075097 0.397293 -3.020363
2011-05-09 07:56:57 51°11.923 2°46.531 17.3362 0.075097 0.397306 -3.020363
2011-05-09 07:57:03 51°11.916 2°46.498 17.3385 0.075097 0.39732 -3.020363
2011-05-09 07:57:08 51°11.91 2°46.47 17.339 0.075097 0.397333 -3.020363
2011-05-09 07:57:12 51°11.905 2°46.448 17.3304 0.075097 0.397353 -3.020363
2011-05-09 07:57:18 51°11.898 2°46.415 17.3464 0.075097 0.397367 -3.020363
2011-05-09 07:57:23 51°11.891 2°46.388 17.3454 0.075097 0.397367 -3.020363
2011-05-09 07:57:28 51°11.884 2°46.36 17.3413 0.075097 0.39738 -3.020363
2011-05-09 07:57:32 51°11.879 2°46.338 17.3308 0.075097 0.3974 -3.020363
2011-05-09 07:57:38 51°11.87 2°46.306 17.3392 0.075097 0.397414 -3.020363
2011-05-09 07:57:43 51°11.863 2°46.279 17.3432 0.075097 0.397434 -3.020363
2011-05-09 07:57:48 51°11.855 2°46.252 17.3351 0.075097 0.397447 -3.020363
2011-05-09 07:57:52 51°11.849 2°46.231 17.332 0.075097 0.397447 -3.020363
2011-05-09 07:57:58 51°11.841 2°46.198 17.3235 0.075097 0.397461 -3.020363
2011-05-09 07:58:03 51°11.833 2°46.172 17.3362 0.075097 0.397474 -3.020363
2011-05-09 07:58:08 51°11.826 2°46.145 17.3401 0.075097 0.397488 -3.020363
2011-05-09 07:58:12 51°11.82 2°46.123 17.3472 0.075097 0.397508 -3.020363
2011-05-09 07:58:17 51°11.813 2°46.096 17.3412 0.075097 0.397514 -3.020363
2011-05-09 07:58:22 51°11.806 2°46.068 17.3558 0.075097 0.397514 -3.020363
2011-05-09 07:58:28 51°11.798 2°46.036 17.3363 0.075097 0.397535 -3.020363
2011-05-09 07:58:32 51°11.792 2°46.014 17.3381 0.075097 0.397555 -3.020363
2011-05-09 07:58:37 51°11.786 2°45.986 17.3359 0.075097 0.397568 -3.020363
2011-05-09 07:58:43 51°11.778 2°45.953 17.3426 0.075097 0.397582 -3.020363
2011-05-09 07:58:48 51°11.772 2°45.925 17.3237 0.075097 0.397595 -3.020363
2011-05-09 07:58:52 51°11.768 2°45.903 17.3443 0.075097 0.397595 -3.020363
2011-05-09 07:58:58 51°11.761 2°45.869 17.3347 0.075097 0.397615 -3.020363
2011-05-09 07:59:03 51°11.757 2°45.84 17.3418 0.075097 0.397629 -3.020363
2011-05-09 07:59:08 51°11.753 2°45.811 17.3405 0.075097 0.397642 -3.020363
2011-05-09 07:59:12 51°11.75 2°45.788 17.354 0.075097 0.397662 -3.020363
2011-05-09 07:59:17 51°11.746 2°45.759 17.3569 0.075097 0.397676 -3.020363
2011-05-09 07:59:23 51°11.743 2°45.724 17.3672 0.075097 0.397676 -3.020363
2011-05-09 07:59:28 51°11.74 2°45.695 17.3751 0.074994 0.397133 -3.020363
2011-05-09 07:59:32 51°11.738 2°45.672 17.365 0.074994 0.397147 -3.020363
2011-05-09 07:59:38 51°11.734 2°45.637 17.3809 0.074994 0.397167 -3.020363
2011-05-09 07:59:43 51°11.731 2°45.608 17.3687 0.074994 0.39718 -3.020363
2011-05-09 07:59:48 51°11.729 2°45.578 17.3776 0.074994 0.397194 -3.020363
2011-05-09 07:59:52 51°11.727 2°45.555 17.379 0.074994 0.397194 -3.020363
2011-05-09 07:59:58 51°11.723 2°45.52 17.3746 0.074994 0.397207 -3.020363
2011-05-09 08:00:03 51°11.72 2°45.491 17.3752 0.074994 0.397228 -3.020363
2011-05-09 08:00:08 51°11.718 2°45.462 17.382 0.074994 0.397234 -3.020363
2011-05-09 08:00:12 51°11.715 2°45.438 17.3773 0.074994 0.397248 -3.020363
2011-05-09 08:00:18 51°11.712 2°45.404 17.3747 0.074994 0.397268 -3.020363
2011-05-09 08:00:23 51°11.709 2°45.375 17.3867 0.074994 0.397268 -3.020363
2011-05-09 08:00:28 51°11.706 2°45.345 17.3979 0.074994 0.397281 -3.020363
2011-05-09 08:00:32 51°11.703 2°45.322 17.3943 0.074994 0.397295 -3.020363
2011-05-09 08:00:37 51°11.7 2°45.293 17.4036 0.074994 0.397308 -3.020363
2011-05-09 08:00:42 51°11.697 2°45.265 17.4015 0.074994 0.397328 -3.020363
2011-05-09 08:00:48 51°11.692 2°45.23 17.4037 0.074994 0.397342 -3.020363
2011-05-09 08:00:52 51°11.689 2°45.207 17.4095 0.074994 0.397342 -3.020363
2011-05-09 08:00:57 51°11.684 2°45.179 17.4045 0.074994 0.397355 -3.020363
2011-05-09 08:01:03 51°11.679 2°45.145 17.395 0.074994 0.397369 -3.020363
2011-05-09 08:01:08 51°11.674 2°45.116 17.3911 0.074994 0.397382 -3.020363
2011-05-09 08:01:12 51°11.671 2°45.093 17.3741 0.074994 0.397396 -3.020363
2011-05-09 08:01:18 51°11.665 2°45.059 17.3963 0.074994 0.397402 -3.020363
2011-05-09 08:01:23 51°11.661 2°45.031 17.3846 0.074994 0.397402 -3.020363
2011-05-09 08:01:28 51°11.657 2°45.002 17.386 0.074994 0.397423 -3.020363
2011-05-09 08:01:32 51°11.654 2°44.979 17.3926 0.074994 0.397436 -3.020363
2011-05-09 08:01:37 51°11.649 2°44.951 17.3725 0.074994 0.39745 -3.020363
2011-05-09 08:01:43 51°11.645 2°44.916 17.3847 0.074994 0.39747 -3.020363
2011-05-09 08:01:48 51°11.641 2°44.887 17.3754 0.074994 0.397483 -3.020363
2011-05-09 08:01:52 51°11.638 2°44.864 17.3979 0.074994 0.397483 -3.020363
2011-05-09 08:01:58 51°11.634 2°44.829 17.4078 0.074994 0.39749 -3.020363
2011-05-09 08:02:03 51°11.63 2°44.8 17.3995 0.074994 0.39751 -3.020363
2011-05-09 08:02:08 51°11.627 2°44.771 17.4087 0.074891 0.396961 -3.020363
2011-05-09 08:02:12 51°11.625 2°44.748 17.4072 0.074994 0.397544 -3.020363
2011-05-09 08:02:18 51°11.621 2°44.713 17.4143 0.074891 0.396994 -3.020363
2011-05-09 08:02:23 51°11.618 2°44.684 17.4087 0.074891 0.396994 -3.020363
2011-05-09 08:02:28 51°11.615 2°44.654 17.4147 0.074891 0.397008 -3.020363
2011-05-09 08:02:32 51°11.613 2°44.631 17.4091 0.074891 0.397028 -3.020363
2011-05-09 08:02:38 51°11.609 2°44.596 17.4152 0.074891 0.397041 -3.020363
2011-05-09 08:02:43 51°11.606 2°44.567 17.4206 0.074891 0.397055 -3.020363
2011-05-09 08:02:48 51°11.603 2°44.538 17.429 0.074891 0.397068 -3.020363
2011-05-09 08:02:52 51°11.6 2°44.515 17.4208 0.074891 0.397068 -3.020363
2011-05-09 08:02:57 51°11.597 2°44.486 17.432 0.074891 0.397088 -3.020363
2011-05-09 08:03:02 51°11.594 2°44.457 17.4319 0.074891 0.397102 -3.020363
2011-05-09 08:03:08 51°11.59 2°44.422 17.419 0.074891 0.397122 -3.020363
2011-05-09 08:03:12 51°11.587 2°44.399 17.415 0.074891 0.397129 -3.020363
2011-05-09 08:03:17 51°11.584 2°44.37 17.426 0.074891 0.397149 -3.020363
2011-05-09 08:03:23 51°11.58 2°44.335 17.4156 0.074891 0.397149 -3.020363
2011-05-09 08:03:28 51°11.577 2°44.306 17.4142 0.074891 0.397156 -3.020363
2011-05-09 08:03:32 51°11.574 2°44.282 17.4284 0.074891 0.397169 -3.020363
2011-05-09 08:03:38 51°11.571 2°44.247 17.426 0.074891 0.397189 -3.020363
2011-05-09 08:03:43 51°11.569 2°44.218 17.4275 0.074891 0.397203 -3.020363
2011-05-09 08:03:48 51°11.566 2°44.189 17.4221 0.074891 0.397216 -3.020363
2011-05-09 08:03:52 51°11.564 2°44.165 17.4426 0.074891 0.397216 -3.020363
2011-05-09 08:03:57 51°11.562 2°44.136 17.4171 0.074891 0.397236 -3.020363
2011-05-09 08:04:03 51°11.56 2°44.1 17.4417 0.074891 0.39725 -3.020363
2011-05-09 08:04:08 51°11.558 2°44.071 17.4308 0.074891 0.397263 -3.020363
2011-05-09 08:04:12 51°11.556 2°44.047 17.4442 0.074891 0.397277 -3.020363
2011-05-09 08:04:18 51°11.554 2°44.012 17.4301 0.074891 0.39729 -3.020363
2011-05-09 08:04:23 51°11.552 2°43.983 17.4446 0.074891 0.39729 -3.020363
2011-05-09 08:04:28 51°11.55 2°43.953 17.4276 0.074891 0.397311 -3.020363
2011-05-09 08:04:32 51°11.549 2°43.93 17.4278 0.074891 0.397317 -3.020363
2011-05-09 08:04:38 51°11.547 2°43.894 17.4449 0.074891 0.397338 -3.020363
2011-05-09 08:04:43 51°11.545 2°43.865 17.4483 0.074891 0.397351 -3.020363
2011-05-09 08:04:48 51°11.544 2°43.836 17.4251 0.074891 0.397358 -3.020363
2011-05-09 08:04:52 51°11.543 2°43.812 17.4519 0.074891 0.397358 -3.020363
2011-05-09 08:04:57 51°11.542 2°43.783 17.456 0.074891 0.397378 -3.020363
2011-05-09 08:05:03 51°11.541 2°43.748 17.4668 0.074891 0.397391 -3.020363
2011-05-09 08:05:08 51°11.54 2°43.718 17.4435 0.074891 0.397405 -3.020363
2011-05-09 08:05:12 51°11.539 2°43.695 17.4592 0.074891 0.397418 -3.020363
2011-05-09 08:05:17 51°11.538 2°43.665 17.4576 0.074788 0.396868 -3.020363
2011-05-09 08:05:22 51°11.536 2°43.636 17.4613 0.074788 0.396868 -3.020363
2011-05-09 08:05:28 51°11.534 2°43.601 17.4665 0.074891 0.397445 -3.020363
2011-05-09 08:05:32 51°11.533 2°43.578 17.4665 0.074891 0.397459 -3.020363
2011-05-09 08:05:37 51°11.531 2°43.549 17.4685 0.074891 0.397472 -3.020363
2011-05-09 08:05:43 51°11.528 2°43.514 17.4681 0.074788 0.396929 -3.020363
2011-05-09 08:05:48 51°11.525 2°43.485 17.4673 0.074788 0.396936 -3.020363
2011-05-09 08:05:52 51°11.523 2°43.462 17.4634 0.074788 0.396936 -3.020363
2011-05-09 08:05:58 51°11.519 2°43.427 17.4622 0.074788 0.396949 -3.020363
2011-05-09 08:06:03 51°11.516 2°43.398 17.4598 0.074788 0.396962 -3.020363
2011-05-09 08:06:08 51°11.513 2°43.37 17.4541 0.074788 0.396976 -3.020363
2011-05-09 08:06:12 51°11.511 2°43.347 17.4655 0.074788 0.396983 -3.020363
2011-05-09 08:06:17 51°11.508 2°43.318 17.4374 0.074788 0.396996 -3.020363
2011-05-09 08:06:23 51°11.504 2°43.283 17.4616 0.074788 0.396996 -3.020363
2011-05-09 08:06:28 51°11.502 2°43.254 17.459 0.074788 0.39701 -3.020363
2011-05-09 08:06:32 51°11.5 2°43.231 17.4646 0.074788 0.397016 -3.020363
2011-05-09 08:06:38 51°11.498 2°43.196 17.4605 0.074788 0.397037 -3.020363
2011-05-09 08:06:43 51°11.496 2°43.167 17.454 0.074788 0.39705 -3.020363
2011-05-09 08:06:48 51°11.495 2°43.137 17.4714 0.074788 0.39707 -3.020363
2011-05-09 08:06:52 51°11.494 2°43.114 17.4553 0.074788 0.39707 -3.020363
2011-05-09 08:06:57 51°11.493 2°43.085 17.4839 0.074788 0.397077 -3.020363
2011-05-09 08:07:03 51°11.492 2°43.049 17.4824 0.074788 0.397097 -3.020363
2011-05-09 08:07:08 51°11.491 2°43.02 17.4855 0.074788 0.397111 -3.020363
2011-05-09 08:07:12 51°11.49 2°42.997 17.4969 0.074788 0.397124 -3.020363
2011-05-09 08:07:18 51°11.488 2°42.962 17.4989 0.074788 0.397138 -3.020363
2011-05-09 08:07:23 51°11.486 2°42.933 17.5009 0.074788 0.397138 -3.020363
2011-05-09 08:07:28 51°11.484 2°42.903 17.4957 0.074788 0.397151 -3.020363
2011-05-09 08:07:32 51°11.481 2°42.88 17.4769 0.074788 0.397158 -3.020363
2011-05-09 08:07:37 51°11.479 2°42.851 17.4873 0.074788 0.397171 -3.020363
2011-05-09 08:07:42 51°11.476 2°42.822 17.4778 0.074788 0.397185 -3.020363
2011-05-09 08:07:48 51°11.472 2°42.787 17.4867 0.074788 0.397198 -3.020363
2011-05-09 08:07:52 51°11.469 2°42.764 17.4823 0.074788 0.397198 -3.020363
2011-05-09 08:07:58 51°11.465 2°42.729 17.4706 0.074788 0.397212 -3.020363
2011-05-09 08:08:03 51°11.462 2°42.701 17.4767 0.074788 0.397225 -3.020363
2011-05-09 08:08:08 51°11.459 2°42.672 17.4698 0.074788 0.397239 -3.020363
2011-05-09 08:08:12 51°11.457 2°42.648 17.489 0.074788 0.397252 -3.020363
2011-05-09 08:08:18 51°11.455 2°42.613 17.4749 0.074788 0.397273 -3.020363
2011-05-09 08:08:23 51°11.452 2°42.584 17.4809 0.074788 0.397273 -3.020363
2011-05-09 08:08:28 51°11.451 2°42.555 17.4935 0.074788 0.397279 -3.020363
2011-05-09 08:08:32 51°11.45 2°42.531 17.4825 0.074788 0.3973 -3.020363
2011-05-09 08:08:38 51°11.449 2°42.496 17.4831 0.074788 0.39732 -3.020363
2011-05-09 08:08:43 51°11.448 2°42.467 17.4801 0.074788 0.397327 -3.020363
2011-05-09 08:08:48 51°11.447 2°42.437 17.5018 0.074685 0.396783 -3.020363
2011-05-09 08:08:52 51°11.446 2°42.414 17.5018 0.074685 0.396783 -3.020363
2011-05-09 08:08:58 51°11.444 2°42.379 17.5255 0.074685 0.396789 -3.020363
2011-05-09 08:09:03 51°11.443 2°42.349 17.5177 0.074685 0.39681 -3.020363
2011-05-09 08:09:08 51°11.441 2°42.32 17.5312 0.074685 0.396823 -3.020363
2011-05-09 08:09:12 51°11.439 2°42.297 17.5284 0.074685 0.396837 -3.020363
2011-05-09 08:09:17 51°11.436 2°42.268 17.52 0.074685 0.39685 -3.020363
2011-05-09 08:09:23 51°11.431 2°42.234 17.4958 0.074685 0.39685 -3.020363
2011-05-09 08:09:28 51°11.427 2°42.206 17.5196 0.074685 0.396857 -3.020363
2011-05-09 08:09:32 51°11.423 2°42.183 17.5116 0.074685 0.39687 -3.020363
2011-05-09 08:09:37 51°11.418 2°42.155 17.5213 0.074685 0.396877 -3.020363
2011-05-09 08:09:42 51°11.414 2°42.126 17.5186 0.074685 0.396891 -3.020363
2011-05-09 08:09:48 51°11.408 2°42.093 17.5042 0.074685 0.396911 -3.020363
2011-05-09 08:09:52 51°11.404 2°42.07 17.5018 0.074685 0.396911 -3.020363
2011-05-09 08:09:57 51°11.399 2°42.042 17.5045 0.074685 0.396917 -3.020363
2011-05-09 08:10:03 51°11.393 2°42.008 17.5018 0.074685 0.396931 -3.020363
2011-05-09 08:10:08 51°11.388 2°41.98 17.5079 0.074685 0.396944 -3.020363
2011-05-09 08:10:12 51°11.384 2°41.957 17.493 0.074685 0.396958 -3.020363
2011-05-09 08:10:17 51°11.379 2°41.929 17.4997 0.074685 0.396978 -3.020363
2011-05-09 08:10:23 51°11.373 2°41.895 17.5117 0.074685 0.396978 -3.020363
2011-05-09 08:10:28 51°11.369 2°41.866 17.5324 0.074685 0.396992 -3.020363
2011-05-09 08:10:32 51°11.365 2°41.844 17.5351 0.074685 0.397005 -3.020363
2011-05-09 08:10:38 51°11.359 2°41.81 17.5259 0.074685 0.397026 -3.020363
2011-05-09 08:10:43 51°11.354 2°41.782 17.5467 0.074685 0.397039 -3.020363
2011-05-09 08:10:48 51°11.348 2°41.754 17.535 0.074685 0.397053 -3.020363
2011-05-09 08:10:52 51°11.344 2°41.731 17.5463 0.074685 0.397053 -3.020363
2011-05-09 08:10:57 51°11.338 2°41.703 17.5398 0.074685 0.397073 -3.020363
2011-05-09 08:11:03 51°11.33 2°41.67 17.5261 0.074685 0.397086 -3.020363
2011-05-09 08:11:08 51°11.323 2°41.643 17.5509 0.074685 0.397093 -3.020363
2011-05-09 08:11:12 51°11.318 2°41.621 17.5633 0.074685 0.397107 -3.020363
2011-05-09 08:11:18 51°11.308 2°41.589 17.5605 0.074685 0.39712 -3.020363
2011-05-09 08:11:23 51°11.3 2°41.563 17.5598 0.074685 0.39712 -3.020363
2011-05-09 08:11:28 51°11.291 2°41.537 17.5545 0.074685 0.397134 -3.020363
2011-05-09 08:11:32 51°11.283 2°41.517 17.56 0.074685 0.397147 -3.020363
2011-05-09 08:11:37 51°11.274 2°41.493 17.5442 0.074685 0.397161 -3.020363
2011-05-09 08:11:43 51°11.262 2°41.463 17.555 0.074685 0.397174 -3.020363
2011-05-09 08:11:48 51°11.251 2°41.439 17.5414 0.074583 0.396623 -3.020363
2011-05-09 08:11:52 51°11.242 2°41.42 17.548 0.074583 0.396623 -3.020363
2011-05-09 08:11:57 51°11.232 2°41.396 17.5475 0.074685 0.397194 -3.020363
2011-05-09 08:12:03 51°11.218 2°41.369 17.5251 0.074685 0.397208 -3.020363
2011-05-09 08:12:08 51°11.207 2°41.345 17.55 0.074583 0.396656 -3.020363
2011-05-09 08:12:12 51°11.198 2°41.326 17.5339 0.074583 0.39667 -3.020363
2011-05-09 08:12:17 51°11.187 2°41.303 17.5423 0.074583 0.396683 -3.020363
2011-05-09 08:12:22 51°11.176 2°41.279 17.5261 0.074583 0.396683 -3.020363
2011-05-09 08:12:28 51°11.163 2°41.251 17.5421 0.074583 0.39669 -3.020363
2011-05-09 08:12:32 51°11.154 2°41.231 17.5264 0.074583 0.39671 -3.020363
2011-05-09 08:12:37 51°11.143 2°41.208 17.5338 0.074583 0.396717 -3.020363
2011-05-09 08:12:42 51°11.133 2°41.183 17.5512 0.074583 0.396737 -3.020363
2011-05-09 08:12:48 51°11.121 2°41.154 17.5358 0.074583 0.396751 -3.020363
2011-05-09 08:12:52 51°11.114 2°41.135 17.5657 0.074583 0.396751 -3.020363
2011-05-09 08:12:58 51°11.101 2°41.104 17.5466 0.074583 0.396765 -3.020363
2011-05-09 08:13:03 51°11.091 2°41.079 17.5664 0.074583 0.396771 -3.020363
2011-05-09 08:13:08 51°11.081 2°41.054 17.5587 0.074583 0.396792 -3.020363
2011-05-09 08:13:12 51°11.074 2°41.033 17.5681 0.074583 0.396805 -3.020363
2011-05-09 08:13:18 51°11.062 2°41.003 17.555 0.074583 0.396819 -3.020363
2011-05-09 08:13:23 51°11.053 2°40.978 17.5723 0.074583 0.396819 -3.020363
2011-05-09 08:13:28 51°11.043 2°40.953 17.5734 0.074583 0.396825 -3.020363
2011-05-09 08:13:32 51°11.036 2°40.932 17.5753 0.074583 0.396839 -3.020363
2011-05-09 08:13:38 51°11.025 2°40.902 17.5876 0.074583 0.396852 -3.020363
2011-05-09 08:13:43 51°11.015 2°40.877 17.5876 0.074583 0.396866 -3.020363
2011-05-09 08:13:48 51°11.007 2°40.851 17.5968 0.074583 0.396879 -3.020363
2011-05-09 08:13:52 51°10.999 2°40.831 17.5969 0.074583 0.396879 -3.020363
2011-05-09 08:13:57 51°10.99 2°40.806 17.6031 0.074583 0.3969 -3.020363
2011-05-09 08:14:03 51°10.978 2°40.777 17.6042 0.074583 0.396913 -3.020363
2011-05-09 08:14:08 51°10.967 2°40.754 17.5852 0.074583 0.39692 -3.020363
2011-05-09 08:14:12 51°10.959 2°40.734 17.594 0.074583 0.396933 -3.020363
2011-05-09 08:14:18 51°10.946 2°40.706 17.5901 0.074583 0.396947 -3.020363
2011-05-09 08:14:22 51°10.938 2°40.688 17.5868 0.074583 0.396947 -3.020363
2011-05-09 08:14:28 51°10.925 2°40.66 17.574 0.074583 0.396954 -3.020363
2011-05-09 08:14:32 51°10.917 2°40.641 17.5715 0.074583 0.396967 -3.020363
2011-05-09 08:14:37 51°10.906 2°40.617 17.5841 0.074583 0.396981 -3.020363
2011-05-09 08:14:42 51°10.896 2°40.593 17.5881 0.074583 0.396988 -3.020363
2011-05-09 08:14:48 51°10.884 2°40.564 17.6078 0.074583 0.397008 -3.020363
2011-05-09 08:14:52 51°10.876 2°40.545 17.5973 0.074583 0.397008 -3.020363
2011-05-09 08:14:58 51°10.864 2°40.516 17.6002 0.074583 0.397021 -3.020363
2011-05-09 08:15:02 51°10.856 2°40.496 17.6107 0.074583 0.397035 -3.020363
2011-05-09 08:15:08 51°10.843 2°40.467 17.6146 0.074583 0.397048 -3.020363
2011-05-09 08:15:12 51°10.835 2°40.448 17.604 0.074583 0.397062 -3.020363
2011-05-09 08:15:18 51°10.823 2°40.419 17.6015 0.074583 0.397076 -3.020363
2011-05-09 08:15:23 51°10.813 2°40.395 17.619 0.074583 0.397076 -3.020363
2011-05-09 08:15:28 51°10.802 2°40.371 17.6149 0.07448 0.396523 -3.020363
2011-05-09 08:15:32 51°10.794 2°40.351 17.6067 0.07448 0.396537 -3.020363
2011-05-09 08:15:38 51°10.782 2°40.322 17.6043 0.07448 0.396557 -3.020363
2011-05-09 08:15:42 51°10.774 2°40.303 17.6053 0.07448 0.396564 -3.020363
2011-05-09 08:15:48 51°10.762 2°40.273 17.5962 0.07448 0.396578 -3.020363
2011-05-09 08:15:52 51°10.754 2°40.253 17.6071 0.07448 0.396578 -3.020363
2011-05-09 08:15:58 51°10.743 2°40.223 17.6173 0.07448 0.396598 -3.020363
2011-05-09 08:16:03 51°10.734 2°40.198 17.6238 0.07448 0.396605 -3.020363
2011-05-09 08:16:08 51°10.725 2°40.172 17.6293 0.07448 0.396618 -3.020363
2011-05-09 08:16:12 51°10.717 2°40.152 17.6214 0.07448 0.396638 -3.020363
2011-05-09 08:16:18 51°10.706 2°40.121 17.6301 0.07448 0.396652 -3.020363
2011-05-09 08:16:23 51°10.698 2°40.095 17.6166 0.07448 0.396652 -3.020363
2011-05-09 08:16:28 51°10.688 2°40.07 17.6495 0.07448 0.396665 -3.020363
2011-05-09 08:16:32 51°10.681 2°40.049 17.6403 0.07448 0.396686 -3.020363
2011-05-09 08:16:37 51°10.672 2°40.023 17.6525 0.07448 0.396699 -3.020363
2011-05-09 08:16:43 51°10.66 2°39.993 17.6502 0.07448 0.396713 -3.020363
2011-05-09 08:16:48 51°10.651 2°39.968 17.6607 0.07448 0.396733 -3.020363
2011-05-09 08:16:52 51°10.642 2°39.949 17.6266 0.07448 0.396733 -3.020363
2011-05-09 08:16:57 51°10.632 2°39.924 17.6573 0.07448 0.39674 -3.020363
2011-05-09 08:17:02 51°10.622 2°39.9 17.64 0.07448 0.396753 -3.020363
2011-05-09 08:17:08 51°10.609 2°39.872 17.6443 0.07448 0.39676 -3.020363
2011-05-09 08:17:12 51°10.601 2°39.852 17.6319 0.07448 0.39678 -3.020363
2011-05-09 08:17:17 51°10.59 2°39.828 17.6327 0.07448 0.396787 -3.020363
2011-05-09 08:17:22 51°10.579 2°39.804 17.619 0.07448 0.396787 -3.020363
2011-05-09 08:17:28 51°10.567 2°39.775 17.6306 0.07448 0.396801 -3.020363
2011-05-09 08:17:32 51°10.559 2°39.755 17.63 0.07448 0.396814 -3.020363
2011-05-09 08:17:38 51°10.546 2°39.726 17.6452 0.07448 0.396828 -3.020363
2011-05-09 08:17:43 51°10.536 2°39.701 17.6239 0.07448 0.396841 -3.020363
2011-05-09 08:17:48 51°10.526 2°39.676 17.6543 0.07448 0.396862 -3.020363
2011-05-09 08:17:52 51°10.518 2°39.656 17.6442 0.07448 0.396862 -3.020363
2011-05-09 08:17:58 51°10.506 2°39.627 17.6564 0.07448 0.396869 -3.020363
2011-05-09 08:18:02 51°10.497 2°39.607 17.6497 0.07448 0.396889 -3.020363
2011-05-09 08:18:08 51°10.485 2°39.578 17.6609 0.07448 0.396909 -3.020363
2011-05-09 08:18:12 51°10.476 2°39.558 17.6544 0.07448 0.396923 -3.020363
2011-05-09 08:18:18 51°10.464 2°39.528 17.6559 0.07448 0.396936 -3.020363
2011-05-09 08:18:23 51°10.453 2°39.504 17.658 0.07448 0.396936 -3.020363
2011-05-09 08:18:28 51°10.443 2°39.48 17.6464 0.07448 0.39695 -3.020363
2011-05-09 08:18:32 51°10.434 2°39.459 17.6384 0.074377 0.39639 -3.020363
2011-05-09 08:18:38 51°10.423 2°39.429 17.6543 0.07448 0.396977 -3.020363
2011-05-09 08:18:42 51°10.415 2°39.409 17.651 0.074377 0.396417 -3.020363
2011-05-09 08:18:48 51°10.404 2°39.378 17.6726 0.074377 0.396438 -3.020363
2011-05-09 08:18:52 51°10.396 2°39.357 17.6432 0.074377 0.396438 -3.020363
2011-05-09 08:18:57 51°10.387 2°39.332 17.6596 0.074377 0.396451 -3.020363
2011-05-09 08:19:02 51°10.378 2°39.306 17.6638 0.074377 0.396472 -3.020363
2011-05-09 08:19:08 51°10.367 2°39.275 17.6749 0.074377 0.396485 -3.020363
2011-05-09 08:19:12 51°10.359 2°39.255 17.6703 0.074377 0.396505 -3.020363
2011-05-09 08:19:18 51°10.348 2°39.224 17.6848 0.074377 0.396519 -3.020363
2011-05-09 08:19:23 51°10.339 2°39.198 17.67 0.074377 0.396519 -3.020363
2011-05-09 08:19:28 51°10.33 2°39.172 17.6897 0.074377 0.396533 -3.020363
2011-05-09 08:19:32 51°10.323 2°39.152 17.6691 0.074377 0.396546 -3.020363
2011-05-09 08:19:38 51°10.311 2°39.121 17.6676 0.074377 0.39656 -3.020363
2011-05-09 08:19:42 51°10.304 2°39.1 17.6899 0.074377 0.39658 -3.020363
2011-05-09 08:19:48 51°10.293 2°39.07 17.6881 0.074377 0.396593 -3.020363
2011-05-09 08:19:52 51°10.285 2°39.049 17.6863 0.074377 0.396593 -3.020363
2011-05-09 08:19:58 51°10.274 2°39.019 17.6949 0.074377 0.396607 -3.020363
2011-05-09 08:20:02 51°10.266 2°38.998 17.7007 0.074377 0.396627 -3.020363
2011-05-09 08:20:08 51°10.255 2°38.968 17.7062 0.074377 0.396634 -3.020363
2011-05-09 08:20:12 51°10.247 2°38.948 17.6999 0.074377 0.396654 -3.020363
2011-05-09 08:20:18 51°10.235 2°38.918 17.7094 0.074377 0.396668 -3.020363
2011-05-09 08:20:23 51°10.225 2°38.893 17.7001 0.074377 0.396668 -3.020363
2011-05-09 08:20:28 51°10.214 2°38.868 17.6998 0.074377 0.396688 -3.020363
2011-05-09 08:20:32 51°10.206 2°38.849 17.7091 0.074377 0.396695 -3.020363
2011-05-09 08:20:37 51°10.195 2°38.825 17.6992 0.074377 0.396715 -3.020363
2011-05-09 08:20:42 51°10.185 2°38.801 17.717 0.074377 0.396729 -3.020363
2011-05-09 08:20:48 51°10.172 2°38.772 17.6971 0.074377 0.396743 -3.020363
2011-05-09 08:20:52 51°10.163 2°38.752 17.6948 0.074377 0.396743 -3.020363
2011-05-09 08:20:58 51°10.15 2°38.723 17.6873 0.074377 0.396756 -3.020363
2011-05-09 08:21:02 51°10.142 2°38.704 17.7082 0.074377 0.396776 -3.020363
2011-05-09 08:21:08 51°10.129 2°38.675 17.6742 0.074377 0.396783 -3.020363
2011-05-09 08:21:12 51°10.121 2°38.655 17.7039 0.074377 0.396804 -3.020363
2011-05-09 08:21:18 51°10.108 2°38.625 17.6992 0.074377 0.396817 -3.020363
2011-05-09 08:21:22 51°10.1 2°38.605 17.7014 0.074377 0.396817 -3.020363
2011-05-09 08:21:28 51°10.088 2°38.575 17.7062 0.074377 0.396838 -3.020363
2011-05-09 08:21:32 51°10.08 2°38.555 17.7122 0.074377 0.396858 -3.020363
2011-05-09 08:21:38 51°10.068 2°38.524 17.7093 0.074377 0.396871 -3.020363
2011-05-09 08:21:43 51°10.059 2°38.499 17.7241 0.074274 0.396325 -3.020363
2011-05-09 08:21:48 51°10.05 2°38.473 17.7044 0.074274 0.396338 -3.020363
2011-05-09 08:21:52 51°10.042 2°38.452 17.7354 0.074274 0.396338 -3.020363
2011-05-09 08:21:58 51°10.031 2°38.421 17.7245 0.074274 0.396366 -3.020363
2011-05-09 08:22:02 51°10.024 2°38.4 17.7375 0.074274 0.396379 -3.020363
2011-05-09 08:22:08 51°10.012 2°38.369 17.711 0.074274 0.396393 -3.020363
2011-05-09 08:22:12 51°10.005 2°38.348 17.733 0.074274 0.396413 -3.020363
2011-05-09 08:22:18 51°9.994 2°38.317 17.7058 0.074274 0.39642 -3.020363
2011-05-09 08:22:23 51°9.985 2°38.291 17.715 0.074274 0.39642 -3.020363
2011-05-09 08:22:28 51°9.976 2°38.265 17.7226 0.074274 0.39644 -3.020363
2011-05-09 08:22:32 51°9.969 2°38.244 17.7336 0.074274 0.396454 -3.020363
2011-05-09 08:22:38 51°9.958 2°38.212 17.7456 0.074274 0.396467 -3.020363
2011-05-09 08:22:43 51°9.949 2°38.186 17.7526 0.074274 0.396481 -3.020363
2011-05-09 08:22:48 51°9.939 2°38.16 17.7635 0.074274 0.396501 -3.020363
2011-05-09 08:22:52 51°9.931 2°38.14 17.7615 0.074274 0.396501 -3.020363
2011-05-09 08:22:57 51°9.921 2°38.115 17.7444 0.074274 0.396515 -3.020363
2011-05-09 08:23:03 51°9.908 2°38.085 17.7374 0.074274 0.396528 -3.020363
2011-05-09 08:23:08 51°9.898 2°38.061 17.7314 0.074274 0.396549 -3.020363
2011-05-09 08:23:12 51°9.889 2°38.042 17.7214 0.074274 0.396562 -3.020363
2011-05-09 08:23:18 51°9.876 2°38.012 17.7363 0.074274 0.396576 -3.020363
2011-05-09 08:23:22 51°9.868 2°37.993 17.7197 0.074274 0.396576 -3.020363
2011-05-09 08:23:28 51°9.855 2°37.963 17.7354 0.074274 0.396589 -3.020363
2011-05-09 08:23:32 51°9.847 2°37.943 17.7364 0.074274 0.39661 -3.020363
2011-05-09 08:23:37 51°9.836 2°37.919 17.7255 0.074274 0.396617 -3.020363
2011-05-09 08:23:42 51°9.827 2°37.893 17.7381 0.074274 0.396637 -3.020363
2011-05-09 08:23:48 51°9.815 2°37.863 17.7432 0.074274 0.39665 -3.020363
2011-05-09 08:23:52 51°9.807 2°37.842 17.7433 0.074274 0.39665 -3.020363
2011-05-09 08:23:58 51°9.796 2°37.811 17.7616 0.074274 0.396671 -3.020363
2011-05-09 08:24:02 51°9.788 2°37.791 17.7397 0.074274 0.396691 -3.020363
2011-05-09 08:24:08 51°9.777 2°37.759 17.7579 0.074274 0.396705 -3.020363
2011-05-09 08:24:12 51°9.77 2°37.738 17.7491 0.074274 0.396725 -3.020363
2011-05-09 08:24:18 51°9.758 2°37.706 17.7594 0.074274 0.396746 -3.020363
2011-05-09 08:24:22 51°9.751 2°37.686 17.777 0.074274 0.396746 -3.020363
2011-05-09 08:24:28 51°9.74 2°37.654 17.7764 0.074171 0.396198 -3.020363
2011-05-09 08:24:32 51°9.733 2°37.633 17.7785 0.074274 0.39678 -3.020363
2011-05-09 08:24:38 51°9.721 2°37.602 17.7669 0.074274 0.396793 -3.020363
2011-05-09 08:24:43 51°9.712 2°37.576 17.7642 0.074274 0.396813 -3.020363
2011-05-09 08:24:48 51°9.702 2°37.55 17.7777 0.074171 0.396266 -3.020363
2011-05-09 08:24:52 51°9.695 2°37.53 17.7795 0.074171 0.396266 -3.020363
2011-05-09 08:24:57 51°9.685 2°37.504 17.7963 0.074171 0.39628 -3.020363
2011-05-09 08:25:03 51°9.672 2°37.474 17.7774 0.074171 0.3963 -3.020363
2011-05-09 08:25:08 51°9.662 2°37.449 17.7767 0.074171 0.396314 -3.020363
2011-05-09 08:25:12 51°9.653 2°37.429 17.779 0.074171 0.396327 -3.020363
2011-05-09 08:25:18 51°9.64 2°37.4 17.7782 0.074171 0.396348 -3.020363
2011-05-09 08:25:23 51°9.629 2°37.375 17.7625 0.074171 0.396348 -3.020363
2011-05-09 08:25:28 51°9.618 2°37.35 17.7523 0.074171 0.396361 -3.020363
2011-05-09 08:25:32 51°9.61 2°37.33 17.7692 0.074171 0.396375 -3.020363
2011-05-09 08:25:37 51°9.599 2°37.306 17.7506 0.074171 0.396388 -3.020363
2011-05-09 08:25:42 51°9.589 2°37.28 17.7687 0.074171 0.396409 -3.020363
2011-05-09 08:25:48 51°9.577 2°37.25 17.7596 0.074171 0.396422 -3.020363
2011-05-09 08:25:52 51°9.569 2°37.229 17.7819 0.074171 0.396422 -3.020363
2011-05-09 08:25:58 51°9.557 2°37.198 17.7872 0.074171 0.396443 -3.020363
2011-05-09 08:26:02 51°9.549 2°37.178 17.7996 0.074171 0.396463 -3.020363
2011-05-09 08:26:08 51°9.538 2°37.146 17.7853 0.074171 0.396484 -3.020363
2011-05-09 08:26:12 51°9.53 2°37.125 17.782 0.074171 0.396497 -3.020363
2011-05-09 08:26:18 51°9.519 2°37.094 17.8064 0.074171 0.396518 -3.020363
2011-05-09 08:26:22 51°9.511 2°37.073 17.7786 0.074171 0.396518 -3.020363
2011-05-09 08:26:28 51°9.5 2°37.04 17.8095 0.074171 0.396524 -3.020363
2011-05-09 08:26:32 51°9.493 2°37.019 17.7928 0.074171 0.396545 -3.020363
2011-05-09 08:26:38 51°9.482 2°36.988 17.8036 0.074171 0.396558 -3.020363
2011-05-09 08:26:43 51°9.472 2°36.961 17.8203 0.074171 0.396572 -3.020363
2011-05-09 08:26:48 51°9.463 2°36.935 17.8134 0.074171 0.396592 -3.020363
2011-05-09 08:26:52 51°9.455 2°36.914 17.8308 0.074171 0.396592 -3.020363
2011-05-09 08:26:58 51°9.444 2°36.883 17.8247 0.074171 0.396606 -3.020363
2011-05-09 08:27:03 51°9.433 2°36.857 17.8163 0.074171 0.396626 -3.020363
2011-05-09 08:27:08 51°9.423 2°36.831 17.8222 0.074171 0.39664 -3.020363
2011-05-09 08:27:12 51°9.415 2°36.812 17.8149 0.074171 0.39666 -3.020363
2011-05-09 08:27:16 51°9.406 2°36.791 17.817 0.074171 0.396674 -3.020363
2011-05-09 08:27:23 51°9.391 2°36.756 17.8213 0.074171 0.396674 -3.020363
2011-05-09 08:27:28 51°9.381 2°36.731 17.8135 0.074171 0.396694 -3.020363
2011-05-09 08:27:32 51°9.372 2°36.711 17.8102 0.074171 0.396708 -3.020363
2011-05-09 08:27:37 51°9.361 2°36.686 17.7743 0.074069 0.39616 -3.020363
2011-05-09 08:27:42 51°9.351 2°36.662 17.7801 0.074171 0.396749 -3.020363
2011-05-09 08:27:48 51°9.339 2°36.633 17.7782 0.074069 0.396194 -3.020363
2011-05-09 08:27:52 51°9.331 2°36.613 17.7668 0.074069 0.396194 -3.020363
2011-05-09 08:27:58 51°9.32 2°36.585 17.7421 0.074171 0.396783 -3.020363
2011-05-09 08:28:02 51°9.314 2°36.566 17.796 0.074069 0.396228 -3.020363
2011-05-09 08:28:08 51°9.305 2°36.537 17.7897 0.074069 0.396255 -3.020363
2011-05-09 08:28:12 51°9.3 2°36.518 17.7742 0.074069 0.396276 -3.020363
2011-05-09 08:28:18 51°9.293 2°36.49 17.7956 0.074069 0.396289 -3.020363
2011-05-09 08:28:22 51°9.29 2°36.472 17.8157 0.074069 0.396289 -3.020363
2011-05-09 08:28:28 51°9.286 2°36.446 17.8294 0.074069 0.396316 -3.020363
2011-05-09 08:28:32 51°9.284 2°36.429 17.8355 0.074069 0.396337 -3.020363
2011-05-09 08:28:38 51°9.281 2°36.406 17.8532 0.074069 0.396364 -3.020363
2011-05-09 08:28:43 51°9.28 2°36.387 17.8593 0.074069 0.396385 -3.020363
2011-05-09 08:28:48 51°9.278 2°36.369 17.8595 0.074069 0.396398 -3.020363
2011-05-09 08:28:52 51°9.278 2°36.355 17.8627 0.074069 0.396398 -3.020363
2011-05-09 08:28:58 51°9.276 2°36.335 17.8695 0.074069 0.396419 -3.020363
2011-05-09 08:29:02 51°9.276 2°36.322 17.8806 0.074069 0.396439 -3.020363
2011-05-09 08:29:08 51°9.276 2°36.303 17.8802 0.074069 0.396453 -3.020363
2011-05-09 08:29:12 51°9.275 2°36.292 17.8768 0.074069 0.396466 -3.020363
2011-05-09 08:29:18 51°9.276 2°36.275 17.8806 0.074069 0.396487 -3.020363
2011-05-09 08:29:22 51°9.276 2°36.264 17.8791 0.074069 0.396487 -3.020363
2011-05-09 08:29:28 51°9.276 2°36.249 17.8889 0.074069 0.396507 -3.020363
2011-05-09 08:29:32 51°9.276 2°36.24 17.899 0.074069 0.396521 -3.020363
2011-05-09 08:29:38 51°9.277 2°36.226 17.9036 0.074069 0.396541 -3.020363
2011-05-09 08:29:43 51°9.277 2°36.216 17.9154 0.074069 0.396568 -3.020363
2011-05-09 08:29:48 51°9.277 2°36.206 17.9167 0.074069 0.396589 -3.020363
2011-05-09 08:29:52 51°9.276 2°36.199 17.923 0.074069 0.396589 -3.020363
2011-05-09 08:29:57 51°9.276 2°36.191 17.9211 0.074069 0.396609 -3.020363
2011-05-09 08:30:02 51°9.275 2°36.183 17.9224 0.074069 0.39663 -3.020363
2011-05-09 08:30:08 51°9.273 2°36.175 17.9182 0.074069 0.396643 -3.020363
2011-05-09 08:30:12 51°9.273 2°36.169 17.9132 0.074069 0.396664 -3.020363
2011-05-09 08:30:18 51°9.271 2°36.162 17.9144 0.074069 0.396677 -3.020363
2011-05-09 08:30:22 51°9.27 2°36.158 17.9181 0.074069 0.396677 -3.020363
2011-05-09 08:30:28 51°9.269 2°36.152 17.9182 0.074069 0.396691 -3.020363
2011-05-09 08:30:32 51°9.268 2°36.148 17.9089 0.074069 0.396705 -3.020363
2011-05-09 08:30:38 51°9.267 2°36.143 17.9224 0.074069 0.396718 -3.020363
2011-05-09 08:30:43 51°9.266 2°36.14 17.903 0.074069 0.396739 -3.020363
2011-05-09 08:30:48 51°9.266 2°36.137 17.9198 0.073966 0.396183 -3.020363
2011-05-09 08:30:52 51°9.265 2°36.135 17.8989 0.073966 0.396183 -3.020363
2011-05-09 08:30:58 51°9.265 2°36.132 17.9052 0.073966 0.396204 -3.020363
2011-05-09 08:31:02 51°9.265 2°36.131 17.924 0.073966 0.396224 -3.020363
2011-05-09 08:31:08 51°9.265 2°36.129 17.9341 0.073966 0.396238 -3.020363
2011-05-09 08:31:12 51°9.265 2°36.128 17.9325 0.073966 0.396258 -3.020363
2011-05-09 08:31:18 51°9.265 2°36.126 17.9324 0.073966 0.396272 -3.020363
2011-05-09 08:31:23 51°9.265 2°36.125 17.9326 0.073966 0.396272 -3.020363
2011-05-09 08:31:28 51°9.266 2°36.123 17.925 0.073966 0.396292 -3.020363
2011-05-09 08:31:33 51°9.266 2°36.122 17.929 0.073966 0.396313 -3.020363
2011-05-09 08:31:39 51°9.266 2°36.12 17.9182 0.073966 0.396326 -3.020363
2011-05-09 08:31:44 51°9.266 2°36.119 17.9236 0.073966 0.39634 -3.020363
2011-05-09 08:31:48 51°9.267 2°36.117 17.9215 0.073966 0.396354 -3.020363
2011-05-09 08:31:53 51°9.267 2°36.116 17.9368 0.073966 0.396354 -3.020363
2011-05-09 08:31:59 51°9.267 2°36.114 17.9237 0.073966 0.396374 -3.020363
2011-05-09 08:32:04 51°9.268 2°36.112 17.9352 0.073966 0.396381 -3.020363
2011-05-09 08:32:08 51°9.268 2°36.11 17.9334 0.073966 0.396401 -3.020363
2011-05-09 08:32:13 51°9.268 2°36.108 17.9342 0.073966 0.396415 -3.020363
2011-05-09 08:32:18 51°9.268 2°36.107 17.9324 0.073966 0.396429 -3.020363
2011-05-09 08:32:23 51°9.269 2°36.105 17.9346 0.073966 0.396429 -3.020363
2011-05-09 08:32:28 51°9.269 2°36.103 17.9351 0.073966 0.396442 -3.020363
2011-05-09 08:32:32 51°9.269 2°36.102 17.9424 0.073966 0.396449 -3.020363
2011-05-09 08:32:37 51°9.269 2°36.1 17.9399 0.073966 0.396469 -3.020363
2011-05-09 08:32:42 51°9.269 2°36.098 17.9436 0.073966 0.396483 -3.020363
2011-05-09 08:32:48 51°9.27 2°36.096 17.946 0.073966 0.396497 -3.020363
2011-05-09 08:32:52 51°9.27 2°36.094 17.947 0.073966 0.396497 -3.020363
2011-05-09 08:32:58 51°9.27 2°36.092 17.9498 0.073966 0.39651 -3.020363
2011-05-09 08:33:02 51°9.27 2°36.091 17.9529 0.073966 0.396524 -3.020363
2011-05-09 08:33:08 51°9.27 2°36.088 17.9563 0.073966 0.396531 -3.020363
2011-05-09 08:33:12 51°9.27 2°36.087 17.9502 0.073966 0.396545 -3.020363
2011-05-09 08:33:18 51°9.27 2°36.085 17.9526 0.073966 0.396558 -3.020363
2011-05-09 08:33:22 51°9.27 2°36.083 17.9571 0.073966 0.396558 -3.020363
2011-05-09 08:33:28 51°9.27 2°36.081 17.9631 0.073966 0.396572 -3.020363
2011-05-09 08:33:32 51°9.27 2°36.08 17.9663 0.073966 0.396585 -3.020363
2011-05-09 08:33:38 51°9.27 2°36.077 17.9691 0.073966 0.396592 -3.020363
2011-05-09 08:33:43 51°9.27 2°36.076 17.9705 0.073966 0.396606 -3.020363
2011-05-09 08:33:48 51°9.27 2°36.074 17.9681 0.073966 0.396613 -3.020363
2011-05-09 08:33:52 51°9.27 2°36.072 17.964 0.073966 0.396613 -3.020363
2011-05-09 08:33:58 51°9.27 2°36.07 17.9736 0.073966 0.396626 -3.020363
2011-05-09 08:34:03 51°9.27 2°36.068 17.9758 0.073966 0.39664 -3.020363
2011-05-09 08:34:08 51°9.27 2°36.066 17.9753 0.073863 0.396077 -3.020363
2011-05-09 08:34:12 51°9.27 2°36.065 17.9789 0.073863 0.396091 -3.020363
2011-05-09 08:34:18 51°9.27 2°36.062 17.9778 0.073966 0.396667 -3.020363
2011-05-09 08:34:23 51°9.27 2°36.06 17.9819 0.073966 0.396667 -3.020363
2011-05-09 08:34:28 51°9.27 2°36.058 17.9866 0.073863 0.396111 -3.020363
2011-05-09 08:34:32 51°9.27 2°36.057 17.9848 0.073863 0.396118 -3.020363
2011-05-09 08:34:37 51°9.27 2°36.055 17.9802 0.073863 0.396125 -3.020363
2011-05-09 08:34:42 51°9.27 2°36.053 17.9784 0.073863 0.396132 -3.020363
2011-05-09 08:34:48 51°9.27 2°36.05 17.9829 0.073863 0.396145 -3.020363
2011-05-09 08:34:52 51°9.27 2°36.049 17.9897 0.073863 0.396145 -3.020363
2011-05-09 08:34:58 51°9.269 2°36.047 17.986 0.073863 0.396159 -3.020363
2011-05-09 08:35:03 51°9.269 2°36.045 17.9862 0.073863 0.396166 -3.020363
2011-05-09 08:35:08 51°9.269 2°36.043 17.9864 0.073863 0.396173 -3.020363
2011-05-09 08:35:12 51°9.269 2°36.041 17.9948 0.073863 0.396186 -3.020363
2011-05-09 08:35:18 51°9.269 2°36.039 17.9942 0.073863 0.396186 -3.020363
2011-05-09 08:35:22 51°9.269 2°36.037 17.9991 0.073863 0.396186 -3.020363
2011-05-09 08:35:28 51°9.269 2°36.034 18.0031 0.073863 0.3962 -3.020363
2011-05-09 08:35:32 51°9.269 2°36.033 18.0052 0.073863 0.396207 -3.020363
2011-05-09 08:35:38 51°9.269 2°36.03 17.6298 0.073863 0.396214 -3.020363
2011-05-09 08:35:43 51°9.269 2°36.028 17.6782 0.073863 0.396227 -3.020363
2011-05-09 08:35:48 51°9.269 2°36.026 17.7006 0.073863 0.396234 -3.020363
2011-05-09 08:35:52 51°9.269 2°36.024 17.7194 0.073863 0.396234 -3.020363
2011-05-09 08:35:58 51°9.269 2°36.022 17.7358 0.073863 0.396241 -3.020363
2011-05-09 08:36:03 51°9.269 2°36.02 17.7464 0.073863 0.396248 -3.020363
2011-05-09 08:36:08 51°9.269 2°36.017 17.7495 0.073863 0.396255 -3.020363
2011-05-09 08:36:12 51°9.269 2°36.016 17.7601 0.073863 0.396268 -3.020363
2011-05-09 08:36:18 51°9.269 2°36.013 17.7746 0.073863 0.396275 -3.020363
2011-05-09 08:36:23 51°9.268 2°36.011 17.7855 0.073863 0.396275 -3.020363
2011-05-09 08:36:28 51°9.268 2°36.009 17.7909 0.073863 0.396282 -3.020363
2011-05-09 08:36:32 51°9.268 2°36.008 17.7983 0.073863 0.396289 -3.020363
2011-05-09 08:36:37 51°9.268 2°36.006 17.7989 0.073863 0.396295 -3.020363
2011-05-09 08:36:43 51°9.268 2°36.003 17.8029 0.073863 0.396302 -3.020363
2011-05-09 08:36:48 51°9.268 2°36.001 17.8057 0.073863 0.396309 -3.020363
2011-05-09 08:36:52 51°9.268 2°36 17.7986 0.073863 0.396309 -3.020363
2011-05-09 08:36:58 51°9.267 2°35.997 17.7747 0.073863 0.396316 -3.020363
2011-05-09 08:37:02 51°9.267 2°35.995 17.784 0.073863 0.396323 -3.020363
2011-05-09 08:37:08 51°9.267 2°35.993 17.7985 0.073863 0.39633 -3.020363
2011-05-09 08:37:12 51°9.267 2°35.991 17.7622 0.073863 0.396336 -3.020363
2011-05-09 08:37:18 51°9.267 2°35.988 17.803 0.073863 0.396343 -3.020363
2011-05-09 08:37:22 51°9.267 2°35.987 17.8423 0.073863 0.396343 -3.020363
2011-05-09 08:37:28 51°9.267 2°35.984 17.8481 0.073863 0.39635 -3.020363
2011-05-09 08:37:32 51°9.266 2°35.983 17.8498 0.073863 0.396357 -3.020363
2011-05-09 08:37:38 51°9.266 2°35.98 17.8494 0.073863 0.396364 -3.020363
2011-05-09 08:37:43 51°9.266 2°35.978 17.8496 0.073863 0.396371 -3.020363
2011-05-09 08:37:48 51°9.266 2°35.975 17.8506 0.073863 0.396377 -3.020363
2011-05-09 08:37:52 51°9.266 2°35.974 17.8514 0.073863 0.396377 -3.020363
2011-05-09 08:37:58 51°9.266 2°35.971 17.8521 0.073863 0.396384 -3.020363
2011-05-09 08:38:03 51°9.266 2°35.969 17.8537 0.073863 0.396391 -3.020363
2011-05-09 08:38:08 51°9.266 2°35.966 17.8568 0.073863 0.396398 -3.020363
2011-05-09 08:38:12 51°9.265 2°35.965 17.8575 0.073863 0.396405 -3.020363
2011-05-09 08:38:18 51°9.265 2°35.962 17.8583 0.073863 0.396412 -3.020363
2011-05-09 08:38:23 51°9.265 2°35.96 17.8608 0.073863 0.396412 -3.020363
2011-05-09 08:38:28 51°9.264 2°35.958 17.8628 0.073863 0.396412 -3.020363
2011-05-09 08:38:32 51°9.264 2°35.956 17.8641 0.073863 0.396425 -3.020363
2011-05-09 08:38:38 51°9.264 2°35.954 17.8658 0.073863 0.396425 -3.020363
2011-05-09 08:38:43 51°9.264 2°35.952 17.8673 0.073863 0.396432 -3.020363
2011-05-09 08:38:48 51°9.264 2°35.949 17.8752 0.073863 0.396439 -3.020363
2011-05-09 08:38:52 51°9.263 2°35.948 17.8774 0.073863 0.396439 -3.020363
2011-05-09 08:38:57 51°9.263 2°35.945 17.8774 0.073863 0.396446 -3.020363
2011-05-09 08:39:03 51°9.263 2°35.943 17.879 0.073863 0.396453 -3.020363
2011-05-09 08:39:08 51°9.262 2°35.94 17.8825 0.073863 0.396459 -3.020363
2011-05-09 08:39:12 51°9.262 2°35.939 17.8841 0.07376 0.395896 -3.020363
2011-05-09 08:39:18 51°9.262 2°35.936 17.8858 0.073863 0.396473 -3.020363
2011-05-09 08:39:22 51°9.262 2°35.935 17.8884 0.073863 0.396473 -3.020363
2011-05-09 08:39:28 51°9.261 2°35.932 17.8911 0.073863 0.396473 -3.020363
2011-05-09 08:39:32 51°9.261 2°35.93 17.8938 0.073863 0.39648 -3.020363